Time,TemperatureF,DewpointF,PressureIn,WindDirection,WindDirectionDegrees,WindSpeedMPH,WindSpeedGustMPH,Humidity,HourlyPrecipIn,Conditions,Clouds,dailyrainin,SoftwareType,DateUTC
2013-07-06 00:00:00,70.0,66.0,29.98,ESE,120,0.0,3.0,87,0.00,,,0.00,VWS V14.01,2013-07-06 05:00:00,
2013-07-06 00:02:00,70.0,66.0,29.98,ESE,120,0.0,0.0,87,0.00,,CLR,0.00,VWS V14.01,2013-07-06 05:02:00,
2013-07-06 00:03:00,70.0,66.0,29.98,ESE,120,0.0,0.0,87,0.00,,CLR,0.00,VWS V14.01,2013-07-06 05:03:00,
2013-07-06 00:04:00,69.8,65.8,29.98,ESE,120,0.0,0.0,87,0.00,,CLR,0.00,VWS V14.01,2013-07-06 05:04:00,
2013-07-06 00:07:00,69.8,65.8,29.98,ESE,120,0.0,0.0,87,0.00,,CLR,0.00,VWS V14.01,2013-07-06 05:07:00,
2013-07-06 00:08:00,69.8,65.8,29.98,ESE,120,0.0,0.0,87,0.00,,CLR,0.00,VWS V14.01,2013-07-06 05:08:00,
2013-07-06 00:09:00,69.8,65.8,29.98,ESE,120,0.0,0.0,87,0.00,,CLR,0.00,VWS V14.01,2013-07-06 05:09:00,
2013-07-06 00:12:00,69.7,65.7,29.98,ESE,120,0.0,0.0,87,0.00,,CLR,0.00,VWS V14.01,2013-07-06 05:12:00,
2013-07-06 00:13:00,69.7,65.7,29.98,ESE,120,0.0,0.0,87,0.00,,CLR,0.00,VWS V14.01,2013-07-06 05:13:00,
2013-07-06 00:14:00,69.7,65.7,29.98,ESE,120,0.0,0.0,87,0.00,,CLR,0.00,VWS V14.01,2013-07-06 05:14:00,
2013-07-06 00:17:00,69.7,65.7,29.98,ESE,120,0.0,0.0,87,0.00,,CLR,0.00,VWS V14.01,2013-07-06 05:17:00,
2013-07-06 00:18:00,69.7,65.7,29.98,ESE,120,0.0,0.0,87,0.00,,CLR,0.00,VWS V14.01,2013-07-06 05:18:00,
2013-07-06 00:19:00,69.7,65.7,29.98,ESE,120,0.0,0.0,87,0.00,,CLR,0.00,VWS V14.01,2013-07-06 05:19:00,
2013-07-06 00:22:00,69.5,65.8,29.98,ESE,120,0.0,0.0,88,0.00,,CLR,0.00,VWS V14.01,2013-07-06 05:22:00,
2013-07-06 00:23:00,69.5,65.8,29.98,ESE,120,0.0,0.0,88,0.00,,CLR,0.00,VWS V14.01,2013-07-06 05:23:00,
2013-07-06 00:24:00,69.5,65.8,29.98,ESE,120,0.0,0.0,88,0.00,,CLR,0.00,VWS V14.01,2013-07-06 05:24:00,
2013-07-06 00:25:00,69.5,65.8,29.98,ESE,120,0.0,0.0,88,0.00,,CLR,0.00,VWS V14.01,2013-07-06 05:25:00,
2013-07-06 00:28:00,69.3,65.6,29.98,ESE,120,0.0,0.0,88,0.00,,CLR,0.00,VWS V14.01,2013-07-06 05:28:00,
2013-07-06 00:29:00,69.3,65.6,29.98,ESE,120,0.0,1.0,88,0.00,,CLR,0.00,VWS V14.01,2013-07-06 05:29:00,
2013-07-06 00:30:00,69.3,65.6,29.98,ESE,120,0.0,1.0,88,0.00,,CLR,0.00,VWS V14.01,2013-07-06 05:30:00,
2013-07-06 00:33:00,69.2,65.5,29.98,ESE,120,0.0,1.0,88,0.00,,CLR,0.00,VWS V14.01,2013-07-06 05:33:00,
2013-07-06 00:34:00,69.2,65.5,29.98,ESE,120,0.0,1.0,88,0.00,,CLR,0.00,VWS V14.01,2013-07-06 05:34:00,
2013-07-06 00:35:00,69.2,65.5,29.98,ESE,120,0.0,1.0,88,0.00,,CLR,0.00,VWS V14.01,2013-07-06 05:35:00,
2013-07-06 00:38:00,69.2,65.5,29.98,ESE,120,0.0,1.0,88,0.00,,CLR,0.00,VWS V14.01,2013-07-06 05:38:00,
2013-07-06 00:39:00,69.2,65.5,29.98,ESE,122,0.0,1.0,88,0.00,,CLR,0.00,VWS V14.01,2013-07-06 05:39:00,
2013-07-06 00:40:00,69.2,65.8,29.98,ESE,122,0.0,1.0,89,0.00,,CLR,0.00,VWS V14.01,2013-07-06 05:40:00,
2013-07-06 00:43:00,69.2,65.8,29.98,ESE,117,0.0,4.0,89,0.00,,CLR,0.00,VWS V14.01,2013-07-06 05:43:00,
2013-07-06 00:44:00,69.2,65.8,29.98,ESE,117,0.0,4.0,89,0.00,,CLR,0.00,VWS V14.01,2013-07-06 05:44:00,
2013-07-06 00:45:00,69.2,65.8,29.97,ESE,117,0.0,4.0,89,0.00,,CLR,0.00,VWS V14.01,2013-07-06 05:45:00,
2013-07-06 00:48:00,69.2,65.8,29.97,ESE,117,0.0,4.0,89,0.00,,CLR,0.00,VWS V14.01,2013-07-06 05:48:00,
2013-07-06 00:49:00,69.2,65.8,29.97,ESE,117,0.0,4.0,89,0.00,,CLR,0.00,VWS V14.01,2013-07-06 05:49:00,
2013-07-06 00:50:00,69.2,65.8,29.97,ESE,117,0.0,4.0,89,0.00,,CLR,0.00,VWS V14.01,2013-07-06 05:50:00,
2013-07-06 00:53:00,69.2,65.8,29.97,ESE,117,0.0,4.0,89,0.00,,CLR,0.00,VWS V14.01,2013-07-06 05:53:00,
2013-07-06 00:54:00,69.2,65.8,29.97,ESE,117,0.0,4.0,89,0.00,,CLR,0.00,VWS V14.01,2013-07-06 05:54:00,
2013-07-06 00:55:00,69.3,65.9,29.97,ESE,117,0.0,4.0,89,0.00,,CLR,0.00,VWS V14.01,2013-07-06 05:55:00,
2013-07-06 00:56:00,69.3,65.9,29.97,ESE,117,0.0,4.0,89,0.00,,CLR,0.00,VWS V14.01,2013-07-06 05:56:00,
2013-07-06 00:58:00,69.2,65.8,29.97,ESE,117,0.0,4.0,89,0.00,,CLR,0.00,VWS V14.01,2013-07-06 05:58:00,
2013-07-06 00:59:00,69.2,65.8,29.97,ESE,117,0.0,4.0,89,0.00,,CLR,0.00,VWS V14.01,2013-07-06 05:59:00,
2013-07-06 01:00:00,69.2,65.8,29.97,ESE,117,0.0,4.0,89,0.00,,CLR,0.00,VWS V14.01,2013-07-06 06:00:00,
2013-07-06 01:01:00,69.2,65.8,29.97,ESE,117,0.0,0.0,89,0.00,,CLR,0.00,VWS V14.01,2013-07-06 06:01:00,
2013-07-06 01:03:00,69.2,65.8,29.97,ESE,117,0.0,1.0,89,0.00,,CLR,0.00,VWS V14.01,2013-07-06 06:03:00,
2013-07-06 01:04:00,69.2,65.5,29.97,ESE,117,0.0,1.0,88,0.00,,CLR,0.00,VWS V14.01,2013-07-06 06:04:00,
2013-07-06 01:05:00,69.2,65.5,29.97,ESE,117,0.0,1.0,88,0.00,,CLR,0.00,VWS V14.01,2013-07-06 06:05:00,
2013-07-06 01:06:00,69.2,65.8,29.97,ESE,117,0.0,1.0,89,0.00,,CLR,0.00,VWS V14.01,2013-07-06 06:06:00,
2013-07-06 01:08:00,69.2,65.8,29.97,ESE,117,0.0,2.0,89,0.00,,CLR,0.00,VWS V14.01,2013-07-06 06:08:00,
2013-07-06 01:10:00,69.0,65.6,29.97,ESE,117,0.0,2.0,89,0.00,,CLR,0.00,VWS V14.01,2013-07-06 06:10:00,
2013-07-06 01:12:00,69.0,65.6,29.97,ESE,118,0.0,2.0,89,0.00,,CLR,0.00,VWS V14.01,2013-07-06 06:12:00,
2013-07-06 01:13:00,69.0,65.6,29.97,ESE,118,0.0,2.0,89,0.00,,CLR,0.00,VWS V14.01,2013-07-06 06:13:00,
2013-07-06 01:15:00,69.0,65.6,29.97,ESE,118,0.0,2.0,89,0.00,,CLR,0.00,VWS V14.01,2013-07-06 06:15:00,
2013-07-06 01:17:00,69.0,65.6,29.97,ESE,118,0.0,2.0,89,0.00,,CLR,0.00,VWS V14.01,2013-07-06 06:17:00,
2013-07-06 01:18:00,69.0,65.6,29.97,ESE,118,0.0,2.0,89,0.00,,CLR,0.00,VWS V14.01,2013-07-06 06:18:00,
2013-07-06 01:20:00,69.0,65.6,29.97,ESE,118,0.0,2.0,89,0.00,,CLR,0.00,VWS V14.01,2013-07-06 06:20:00,
2013-07-06 01:22:00,69.0,65.6,29.97,ESE,118,0.0,2.0,89,0.00,,CLR,0.00,VWS V14.01,2013-07-06 06:22:00,
2013-07-06 01:23:00,69.0,65.6,29.97,ESE,118,0.0,2.0,89,0.00,,CLR,0.00,VWS V14.01,2013-07-06 06:23:00,
2013-07-06 01:25:00,69.0,65.6,29.97,ESE,118,0.0,2.0,89,0.00,,CLR,0.00,VWS V14.01,2013-07-06 06:25:00,
2013-07-06 01:26:00,69.0,65.6,29.97,ESE,118,0.0,2.0,89,0.00,,CLR,0.00,VWS V14.01,2013-07-06 06:26:00,
2013-07-06 01:27:00,69.0,65.6,29.97,ESE,118,0.0,2.0,89,0.00,,CLR,0.00,VWS V14.01,2013-07-06 06:27:00,
2013-07-06 01:29:00,69.0,65.6,29.97,ESE,118,0.0,2.0,89,0.00,,CLR,0.00,VWS V14.01,2013-07-06 06:29:00,
2013-07-06 01:30:00,69.0,65.6,29.96,ESE,118,0.0,2.0,89,0.00,,CLR,0.00,VWS V14.01,2013-07-06 06:30:00,
2013-07-06 01:31:00,68.8,65.4,29.96,ESE,118,0.0,0.0,89,0.00,,CLR,0.00,VWS V14.01,2013-07-06 06:31:00,
2013-07-06 01:32:00,68.8,65.4,29.96,ESE,118,0.0,0.0,89,0.00,,CLR,0.00,VWS V14.01,2013-07-06 06:32:00,
2013-07-06 01:34:00,68.8,65.4,29.96,ESE,118,0.0,1.0,89,0.00,,CLR,0.00,VWS V14.01,2013-07-06 06:34:00,
2013-07-06 01:35:00,68.8,65.4,29.96,ESE,118,0.0,1.0,89,0.00,,CLR,0.00,VWS V14.01,2013-07-06 06:35:00,
2013-07-06 01:36:00,68.8,65.4,29.96,ESE,118,0.0,1.0,89,0.00,,CLR,0.00,VWS V14.01,2013-07-06 06:36:00,
2013-07-06 01:37:00,68.8,65.4,29.96,ESE,118,0.0,1.0,89,0.00,,CLR,0.00,VWS V14.01,2013-07-06 06:37:00,
2013-07-06 01:39:00,68.8,65.4,29.96,ESE,118,0.0,1.0,89,0.00,,CLR,0.00,VWS V14.01,2013-07-06 06:39:00,
2013-07-06 01:40:00,68.8,65.4,29.96,ESE,118,0.0,1.0,89,0.00,,CLR,0.00,VWS V14.01,2013-07-06 06:40:00,
2013-07-06 01:42:00,68.7,65.3,29.96,ESE,118,1.0,1.0,89,0.00,,CLR,0.00,VWS V14.01,2013-07-06 06:42:00,
2013-07-06 01:44:00,68.7,65.3,29.96,ESE,118,0.0,2.0,89,0.00,,CLR,0.00,VWS V14.01,2013-07-06 06:44:00,
2013-07-06 01:45:00,68.7,65.7,29.97,ESE,118,0.0,2.0,90,0.00,,CLR,0.00,VWS V14.01,2013-07-06 06:45:00,
2013-07-06 01:46:00,68.7,65.7,29.97,ESE,118,0.0,2.0,90,0.00,,CLR,0.00,VWS V14.01,2013-07-06 06:46:00,
2013-07-06 01:47:00,68.7,65.7,29.97,ESE,118,0.0,2.0,90,0.00,,CLR,0.00,VWS V14.01,2013-07-06 06:47:00,
2013-07-06 01:49:00,68.7,65.7,29.97,ESE,118,0.0,2.0,90,0.00,,CLR,0.00,VWS V14.01,2013-07-06 06:49:00,
2013-07-06 01:50:00,68.7,65.7,29.97,ESE,118,0.0,2.0,90,0.00,,CLR,0.00,VWS V14.01,2013-07-06 06:50:00,
2013-07-06 01:51:00,68.7,65.7,29.97,ESE,118,0.0,2.0,90,0.00,,CLR,0.00,VWS V14.01,2013-07-06 06:51:00,
2013-07-06 01:52:00,68.7,65.7,29.97,ESE,118,0.0,2.0,90,0.00,,CLR,0.00,VWS V14.01,2013-07-06 06:52:00,
2013-07-06 01:54:00,68.7,65.7,29.97,ESE,118,0.0,2.0,90,0.00,,CLR,0.00,VWS V14.01,2013-07-06 06:54:00,
2013-07-06 01:55:00,68.7,65.7,29.97,ESE,118,0.0,2.0,90,0.00,,CLR,0.00,VWS V14.01,2013-07-06 06:55:00,
2013-07-06 01:56:00,68.7,65.7,29.97,ESE,118,0.0,2.0,90,0.00,,CLR,0.00,VWS V14.01,2013-07-06 06:56:00,
2013-07-06 01:57:00,68.7,65.7,29.97,ESE,118,0.0,2.0,90,0.00,,CLR,0.00,VWS V14.01,2013-07-06 06:57:00,
2013-07-06 01:59:00,68.7,65.7,29.97,ESE,118,0.0,2.0,90,0.00,,CLR,0.00,VWS V14.01,2013-07-06 06:59:00,
2013-07-06 02:00:00,68.7,65.7,29.97,ESE,118,0.0,2.0,90,0.00,,CLR,0.00,VWS V14.01,2013-07-06 07:00:00,
2013-07-06 02:01:00,68.7,65.7,29.97,ESE,118,0.0,0.0,90,0.00,,CLR,0.00,VWS V14.01,2013-07-06 07:01:00,
2013-07-06 02:02:00,68.7,65.7,29.97,ESE,118,0.0,0.0,90,0.00,,CLR,0.00,VWS V14.01,2013-07-06 07:02:00,
2013-07-06 02:03:00,68.7,65.7,29.97,ESE,118,0.0,0.0,90,0.00,,CLR,0.00,VWS V14.01,2013-07-06 07:03:00,
2013-07-06 02:04:00,68.7,65.7,29.97,ESE,118,0.0,0.0,90,0.00,,CLR,0.00,VWS V14.01,2013-07-06 07:04:00,
2013-07-06 02:05:00,68.7,65.7,29.97,ESE,118,0.0,0.0,90,0.00,,CLR,0.00,VWS V14.01,2013-07-06 07:05:00,
2013-07-06 02:06:00,68.7,65.7,29.97,ESE,118,0.0,0.0,90,0.00,,CLR,0.00,VWS V14.01,2013-07-06 07:06:00,
2013-07-06 02:07:00,68.7,65.7,29.97,ESE,118,0.0,0.0,90,0.00,,CLR,0.00,VWS V14.01,2013-07-06 07:07:00,
2013-07-06 02:08:00,68.7,65.7,29.97,ESE,118,0.0,0.0,90,0.00,,CLR,0.00,VWS V14.01,2013-07-06 07:08:00,
2013-07-06 02:09:00,68.7,65.7,29.97,ESE,118,0.0,0.0,90,0.00,,CLR,0.00,VWS V14.01,2013-07-06 07:09:00,
2013-07-06 02:10:00,68.7,65.7,29.97,ESE,118,0.0,0.0,90,0.00,,CLR,0.00,VWS V14.01,2013-07-06 07:10:00,
2013-07-06 02:12:00,68.7,65.7,29.97,ESE,118,0.0,0.0,90,0.00,,CLR,0.00,VWS V14.01,2013-07-06 07:12:00,
2013-07-06 02:13:00,68.7,65.7,29.97,ESE,118,0.0,0.0,90,0.00,,CLR,0.00,VWS V14.01,2013-07-06 07:13:00,
2013-07-06 02:14:00,68.7,65.7,29.97,ESE,118,0.0,1.0,90,0.00,,CLR,0.00,VWS V14.01,2013-07-06 07:14:00,
2013-07-06 02:15:00,68.7,66.0,29.97,ESE,118,0.0,1.0,91,0.00,,CLR,0.00,VWS V14.01,2013-07-06 07:15:00,
2013-07-06 02:17:00,68.7,66.0,29.97,ESE,118,0.0,1.0,91,0.00,,CLR,0.00,VWS V14.01,2013-07-06 07:17:00,
2013-07-06 02:18:00,68.7,66.0,29.97,ESE,118,0.0,1.0,91,0.00,,CLR,0.00,VWS V14.01,2013-07-06 07:18:00,
2013-07-06 02:19:00,68.7,66.0,29.97,ESE,118,0.0,1.0,91,0.00,,CLR,0.00,VWS V14.01,2013-07-06 07:19:00,
2013-07-06 02:20:00,68.7,66.0,29.97,ESE,118,0.0,1.0,91,0.00,,CLR,0.00,VWS V14.01,2013-07-06 07:20:00,
2013-07-06 02:22:00,68.7,66.0,29.97,ESE,118,0.0,1.0,91,0.00,,CLR,0.00,VWS V14.01,2013-07-06 07:22:00,
2013-07-06 02:23:00,68.7,66.0,29.97,ESE,118,0.0,1.0,91,0.00,,CLR,0.00,VWS V14.01,2013-07-06 07:23:00,
2013-07-06 02:24:00,68.7,66.0,29.97,ESE,118,0.0,1.0,91,0.00,,CLR,0.00,VWS V14.01,2013-07-06 07:24:00,
2013-07-06 02:26:00,68.7,66.0,29.97,ESE,118,0.0,1.0,91,0.00,,CLR,0.00,VWS V14.01,2013-07-06 07:26:00,
2013-07-06 02:27:00,68.7,66.0,29.97,ESE,118,0.0,1.0,91,0.00,,CLR,0.00,VWS V14.01,2013-07-06 07:27:00,
2013-07-06 02:28:00,68.7,66.0,29.97,ESE,118,0.0,1.0,91,0.00,,CLR,0.00,VWS V14.01,2013-07-06 07:28:00,
2013-07-06 02:29:00,68.5,65.8,29.97,ESE,118,0.0,1.0,91,0.00,,CLR,0.00,VWS V14.01,2013-07-06 07:29:00,
2013-07-06 02:30:00,68.5,65.8,29.97,ESE,118,0.0,1.0,91,0.00,,,0.00,VWS V14.01,2013-07-06 07:30:00,
2013-07-06 02:31:00,68.5,65.8,29.97,ESE,118,0.0,0.0,91,0.00,,CLR,0.00,VWS V14.01,2013-07-06 07:31:00,
2013-07-06 02:32:00,68.5,65.8,29.97,ESE,118,0.0,0.0,91,0.00,,CLR,0.00,VWS V14.01,2013-07-06 07:32:00,
2013-07-06 02:33:00,68.5,65.8,29.97,ESE,118,0.0,0.0,91,0.00,,CLR,0.00,VWS V14.01,2013-07-06 07:33:00,
2013-07-06 02:35:00,68.5,65.8,29.97,ESE,118,0.0,0.0,91,0.00,,CLR,0.00,VWS V14.01,2013-07-06 07:35:00,
2013-07-06 02:36:00,68.5,65.8,29.97,ESE,118,0.0,0.0,91,0.00,,CLR,0.00,VWS V14.01,2013-07-06 07:36:00,
2013-07-06 02:37:00,68.5,65.8,29.97,ESE,118,0.0,0.0,91,0.00,,CLR,0.00,VWS V14.01,2013-07-06 07:37:00,
2013-07-06 02:38:00,68.3,65.6,29.97,ESE,118,0.0,0.0,91,0.00,,CLR,0.00,VWS V14.01,2013-07-06 07:38:00,
2013-07-06 02:40:00,68.3,65.6,29.97,ESE,118,0.0,0.0,91,0.00,,CLR,0.00,VWS V14.01,2013-07-06 07:40:00,
2013-07-06 02:41:00,68.3,65.6,29.97,ESE,118,0.0,0.0,91,0.00,,CLR,0.00,VWS V14.01,2013-07-06 07:41:00,
2013-07-06 02:42:00,68.3,65.6,29.97,ESE,118,0.0,0.0,91,0.00,,CLR,0.00,VWS V14.01,2013-07-06 07:42:00,
2013-07-06 02:43:00,68.3,65.6,29.97,ESE,118,0.0,0.0,91,0.00,,CLR,0.00,VWS V14.01,2013-07-06 07:43:00,
2013-07-06 02:45:00,68.2,65.5,29.96,ESE,118,0.0,0.0,91,0.00,,CLR,0.00,VWS V14.01,2013-07-06 07:45:00,
2013-07-06 02:46:00,68.2,65.5,29.96,ESE,118,0.0,0.0,91,0.00,,CLR,0.00,VWS V14.01,2013-07-06 07:46:00,
2013-07-06 02:47:00,68.0,65.3,29.96,ESE,118,0.0,0.0,91,0.00,,CLR,0.00,VWS V14.01,2013-07-06 07:47:00,
2013-07-06 02:48:00,68.0,65.3,29.96,ESE,118,0.0,0.0,91,0.00,,CLR,0.00,VWS V14.01,2013-07-06 07:48:00,
2013-07-06 02:50:00,67.8,65.1,29.96,ESE,118,0.0,0.0,91,0.00,,CLR,0.00,VWS V14.01,2013-07-06 07:50:00,
2013-07-06 02:51:00,67.8,65.1,29.96,ESE,118,0.0,0.0,91,0.00,,CLR,0.00,VWS V14.01,2013-07-06 07:51:00,
2013-07-06 02:52:00,67.8,65.1,29.96,ESE,118,0.0,0.0,91,0.00,,CLR,0.00,VWS V14.01,2013-07-06 07:52:00,
2013-07-06 02:53:00,67.7,65.0,29.96,ESE,118,0.0,0.0,91,0.00,,CLR,0.00,VWS V14.01,2013-07-06 07:53:00,
2013-07-06 02:54:00,67.7,65.0,29.96,ESE,118,0.0,0.0,91,0.00,,CLR,0.00,VWS V14.01,2013-07-06 07:54:00,
2013-07-06 02:55:00,67.7,65.0,29.96,ESE,118,0.0,0.0,91,0.00,,CLR,0.00,VWS V14.01,2013-07-06 07:55:00,
2013-07-06 02:56:00,67.7,65.0,29.96,ESE,118,0.0,0.0,91,0.00,,CLR,0.00,VWS V14.01,2013-07-06 07:56:00,
2013-07-06 02:57:00,67.7,65.0,29.96,ESE,118,0.0,0.0,91,0.00,,CLR,0.00,VWS V14.01,2013-07-06 07:57:00,
2013-07-06 02:58:00,67.5,64.8,29.96,ESE,118,0.0,0.0,91,0.00,,CLR,0.00,VWS V14.01,2013-07-06 07:58:00,
2013-07-06 02:59:00,67.5,64.8,29.96,ESE,118,0.0,0.0,91,0.00,,CLR,0.00,VWS V14.01,2013-07-06 07:59:00,
2013-07-06 03:00:00,67.5,64.8,29.96,ESE,118,0.0,0.0,91,0.00,,CLR,0.00,VWS V14.01,2013-07-06 08:00:00,
2013-07-06 03:01:00,67.5,64.8,29.96,ESE,118,0.0,0.0,91,0.00,,CLR,0.00,VWS V14.01,2013-07-06 08:01:00,
2013-07-06 03:03:00,67.5,64.8,29.96,ESE,118,0.0,0.0,91,0.00,,CLR,0.00,VWS V14.01,2013-07-06 08:03:00,
2013-07-06 03:04:00,67.5,64.8,29.96,ESE,118,0.0,0.0,91,0.00,,CLR,0.00,VWS V14.01,2013-07-06 08:04:00,
2013-07-06 03:05:00,67.5,64.8,29.96,ESE,118,0.0,0.0,91,0.00,,CLR,0.00,VWS V14.01,2013-07-06 08:05:00,
2013-07-06 03:06:00,67.5,64.8,29.96,ESE,118,0.0,0.0,91,0.00,,CLR,0.00,VWS V14.01,2013-07-06 08:06:00,
2013-07-06 03:08:00,67.5,64.8,29.96,ESE,118,0.0,0.0,91,0.00,,CLR,0.00,VWS V14.01,2013-07-06 08:08:00,
2013-07-06 03:09:00,67.5,65.1,29.96,ESE,118,0.0,0.0,92,0.00,,CLR,0.00,VWS V14.01,2013-07-06 08:09:00,
2013-07-06 03:10:00,67.5,65.1,29.96,ESE,118,0.0,0.0,92,0.00,,CLR,0.00,VWS V14.01,2013-07-06 08:10:00,
2013-07-06 03:11:00,67.5,65.1,29.96,ESE,118,0.0,0.0,92,0.00,,CLR,0.00,VWS V14.01,2013-07-06 08:11:00,
2013-07-06 03:13:00,67.5,65.1,29.96,ESE,118,0.0,0.0,92,0.00,,CLR,0.00,VWS V14.01,2013-07-06 08:13:00,
2013-07-06 03:14:00,67.5,65.1,29.96,ESE,118,0.0,0.0,92,0.00,,CLR,0.00,VWS V14.01,2013-07-06 08:14:00,
2013-07-06 03:15:00,67.5,65.1,29.96,ESE,118,0.0,0.0,92,0.00,,CLR,0.00,VWS V14.01,2013-07-06 08:15:00,
2013-07-06 03:16:00,67.5,65.1,29.96,ESE,118,0.0,0.0,92,0.00,,CLR,0.00,VWS V14.01,2013-07-06 08:16:00,
2013-07-06 03:18:00,67.5,65.1,29.96,ESE,118,0.0,0.0,92,0.00,,CLR,0.00,VWS V14.01,2013-07-06 08:18:00,
2013-07-06 03:19:00,67.5,65.1,29.96,ESE,118,0.0,0.0,92,0.00,,CLR,0.00,VWS V14.01,2013-07-06 08:19:00,
2013-07-06 03:20:00,67.3,64.9,29.96,ESE,118,0.0,0.0,92,0.00,,CLR,0.00,VWS V14.01,2013-07-06 08:20:00,
2013-07-06 03:22:00,67.3,64.9,29.96,ESE,118,0.0,0.0,92,0.00,,CLR,0.00,VWS V14.01,2013-07-06 08:22:00,
2013-07-06 03:23:00,67.3,64.9,29.96,ESE,118,0.0,0.0,92,0.00,,CLR,0.00,VWS V14.01,2013-07-06 08:23:00,
2013-07-06 03:24:00,67.3,64.9,29.96,ESE,118,0.0,0.0,92,0.00,,CLR,0.00,VWS V14.01,2013-07-06 08:24:00,
2013-07-06 03:25:00,67.3,64.9,29.96,ESE,118,0.0,0.0,92,0.00,,CLR,0.00,VWS V14.01,2013-07-06 08:25:00,
2013-07-06 03:27:00,67.3,64.9,29.96,ESE,118,0.0,0.0,92,0.00,,CLR,0.00,VWS V14.01,2013-07-06 08:27:00,
2013-07-06 03:28:00,67.2,64.8,29.96,ESE,118,0.0,0.0,92,0.00,,CLR,0.00,VWS V14.01,2013-07-06 08:28:00,
2013-07-06 03:29:00,67.2,64.8,29.96,ESE,118,0.0,0.0,92,0.00,,CLR,0.00,VWS V14.01,2013-07-06 08:29:00,
2013-07-06 03:30:00,67.2,64.8,29.97,ESE,118,0.0,0.0,92,0.00,,,0.00,VWS V14.01,2013-07-06 08:30:00,
2013-07-06 03:31:00,67.2,64.8,29.97,ESE,118,0.0,0.0,92,0.00,,CLR,0.00,VWS V14.01,2013-07-06 08:31:00,
2013-07-06 03:32:00,67.2,64.8,29.97,ESE,118,0.0,0.0,92,0.00,,CLR,0.00,VWS V14.01,2013-07-06 08:32:00,
2013-07-06 03:34:00,67.2,64.8,29.97,ESE,118,0.0,0.0,92,0.00,,CLR,0.00,VWS V14.01,2013-07-06 08:34:00,
2013-07-06 03:36:00,67.2,64.8,29.97,ESE,118,0.0,0.0,92,0.00,,CLR,0.00,VWS V14.01,2013-07-06 08:36:00,
2013-07-06 03:37:00,67.3,64.9,29.97,ESE,118,0.0,0.0,92,0.00,,CLR,0.00,VWS V14.01,2013-07-06 08:37:00,
2013-07-06 03:39:00,67.3,64.9,29.97,ESE,118,0.0,0.0,92,0.00,,CLR,0.00,VWS V14.01,2013-07-06 08:39:00,
2013-07-06 03:41:00,67.5,65.1,29.97,ESE,118,0.0,0.0,92,0.00,,CLR,0.00,VWS V14.01,2013-07-06 08:41:00,
2013-07-06 03:42:00,67.5,65.4,29.97,ESE,118,0.0,0.0,93,0.00,,CLR,0.00,VWS V14.01,2013-07-06 08:42:00,
2013-07-06 03:44:00,67.7,65.3,29.97,ESE,118,0.0,0.0,92,0.00,,CLR,0.00,VWS V14.01,2013-07-06 08:44:00,
2013-07-06 03:46:00,67.7,65.3,29.96,ESE,118,0.0,0.0,92,0.00,,CLR,0.00,VWS V14.01,2013-07-06 08:46:00,
2013-07-06 03:48:00,67.7,65.3,29.96,ESE,118,0.0,0.0,92,0.00,,CLR,0.00,VWS V14.01,2013-07-06 08:48:00,
2013-07-06 03:49:00,67.7,65.6,29.96,ESE,118,0.0,0.0,93,0.00,,CLR,0.00,VWS V14.01,2013-07-06 08:49:00,
2013-07-06 03:50:00,67.7,65.6,29.96,ESE,118,0.0,0.0,93,0.00,,CLR,0.00,VWS V14.01,2013-07-06 08:50:00,
2013-07-06 03:51:00,67.7,65.6,29.96,ESE,118,0.0,0.0,93,0.00,,CLR,0.00,VWS V14.01,2013-07-06 08:51:00,
2013-07-06 03:54:00,67.7,65.6,29.96,ESE,118,0.0,0.0,93,0.00,,CLR,0.00,VWS V14.01,2013-07-06 08:54:00,
2013-07-06 03:55:00,67.7,65.6,29.96,ESE,118,0.0,0.0,93,0.00,,CLR,0.00,VWS V14.01,2013-07-06 08:55:00,
2013-07-06 03:56:00,67.7,65.6,29.96,ESE,118,0.0,0.0,93,0.00,,CLR,0.00,VWS V14.01,2013-07-06 08:56:00,
2013-07-06 03:59:00,67.7,65.6,29.96,ESE,118,0.0,0.0,93,0.00,,CLR,0.00,VWS V14.01,2013-07-06 08:59:00,
2013-07-06 04:00:00,67.7,65.6,29.96,ESE,118,0.0,0.0,93,0.00,,CLR,0.00,VWS V14.01,2013-07-06 09:00:00,
2013-07-06 04:01:00,67.8,65.7,29.96,ESE,118,0.0,0.0,93,0.00,,CLR,0.00,VWS V14.01,2013-07-06 09:01:00,
2013-07-06 04:04:00,67.8,65.7,29.96,ESE,118,0.0,1.0,93,0.00,,CLR,0.00,VWS V14.01,2013-07-06 09:04:00,
2013-07-06 04:05:00,68.0,65.9,29.96,ESE,118,0.0,1.0,93,0.00,,CLR,0.00,VWS V14.01,2013-07-06 09:05:00,
2013-07-06 04:06:00,68.0,65.9,29.96,ESE,118,0.0,1.0,93,0.00,,CLR,0.00,VWS V14.01,2013-07-06 09:06:00,
2013-07-06 04:09:00,68.0,65.9,29.96,ESE,118,0.0,1.0,93,0.00,,CLR,0.00,VWS V14.01,2013-07-06 09:09:00,
2013-07-06 04:10:00,68.0,65.9,29.96,ESE,118,0.0,1.0,93,0.00,,CLR,0.00,VWS V14.01,2013-07-06 09:10:00,
2013-07-06 04:11:00,68.0,65.9,29.96,ESE,118,0.0,1.0,93,0.00,,CLR,0.00,VWS V14.01,2013-07-06 09:11:00,
2013-07-06 04:14:00,68.0,65.9,29.96,ESE,118,0.0,1.0,93,0.00,,CLR,0.00,VWS V14.01,2013-07-06 09:14:00,
2013-07-06 04:15:00,68.0,65.9,29.96,ESE,118,0.0,1.0,93,0.00,,CLR,0.00,VWS V14.01,2013-07-06 09:15:00,
2013-07-06 04:16:00,68.0,65.9,29.96,ESE,118,0.0,1.0,93,0.00,,CLR,0.00,VWS V14.01,2013-07-06 09:16:00,
2013-07-06 04:19:00,68.0,65.9,29.96,ESE,118,0.0,1.0,93,0.00,,CLR,0.00,VWS V14.01,2013-07-06 09:19:00,
2013-07-06 04:20:00,68.0,65.9,29.96,ESE,118,0.0,1.0,93,0.00,,CLR,0.00,VWS V14.01,2013-07-06 09:20:00,
2013-07-06 04:21:00,68.0,65.9,29.96,ESE,118,0.0,1.0,93,0.00,,CLR,0.00,VWS V14.01,2013-07-06 09:21:00,
2013-07-06 04:24:00,68.2,66.1,29.96,ESE,118,0.0,1.0,93,0.00,,CLR,0.00,VWS V14.01,2013-07-06 09:24:00,
2013-07-06 04:25:00,68.2,66.1,29.96,ESE,118,0.0,1.0,93,0.00,,CLR,0.00,VWS V14.01,2013-07-06 09:25:00,
2013-07-06 04:26:00,68.2,66.1,29.96,ESE,118,0.0,1.0,93,0.00,,CLR,0.00,VWS V14.01,2013-07-06 09:26:00,
2013-07-06 04:27:00,68.2,66.1,29.96,ESE,118,0.0,1.0,93,0.00,,CLR,0.00,VWS V14.01,2013-07-06 09:27:00,
2013-07-06 04:29:00,68.2,66.1,29.96,ESE,118,0.0,1.0,93,0.00,,CLR,0.00,VWS V14.01,2013-07-06 09:29:00,
2013-07-06 04:30:00,68.2,66.1,29.96,ESE,118,0.0,0.0,93,0.00,,CLR,0.00,VWS V14.01,2013-07-06 09:30:00,
2013-07-06 04:31:00,68.2,66.1,29.96,ESE,118,0.0,0.0,93,0.00,,CLR,0.00,VWS V14.01,2013-07-06 09:31:00,
2013-07-06 04:32:00,68.0,65.9,29.96,ESE,118,0.0,0.0,93,0.00,,CLR,0.00,VWS V14.01,2013-07-06 09:32:00,
2013-07-06 04:35:00,68.0,65.9,29.96,ESE,118,0.0,0.0,93,0.00,,CLR,0.00,VWS V14.01,2013-07-06 09:35:00,
2013-07-06 04:36:00,68.0,65.9,29.96,ESE,118,0.0,0.0,93,0.00,,CLR,0.00,VWS V14.01,2013-07-06 09:36:00,
2013-07-06 04:37:00,68.0,65.9,29.96,ESE,118,0.0,0.0,93,0.00,,CLR,0.00,VWS V14.01,2013-07-06 09:37:00,
2013-07-06 04:40:00,68.0,65.9,29.96,ESE,118,0.0,0.0,93,0.00,,CLR,0.00,VWS V14.01,2013-07-06 09:40:00,
2013-07-06 04:41:00,67.8,65.7,29.96,ESE,118,0.0,0.0,93,0.00,,CLR,0.00,VWS V14.01,2013-07-06 09:41:00,
2013-07-06 04:42:00,67.8,65.7,29.96,ESE,118,0.0,0.0,93,0.00,,CLR,0.00,VWS V14.01,2013-07-06 09:42:00,
2013-07-06 04:45:00,67.8,65.7,29.97,ESE,118,0.0,0.0,93,0.00,,CLR,0.00,VWS V14.01,2013-07-06 09:45:00,
2013-07-06 04:46:00,67.8,65.7,29.97,ESE,118,0.0,0.0,93,0.00,,CLR,0.00,VWS V14.01,2013-07-06 09:46:00,
2013-07-06 04:47:00,67.8,65.7,29.97,ESE,118,0.0,0.0,93,0.00,,CLR,0.00,VWS V14.01,2013-07-06 09:47:00,
2013-07-06 04:50:00,67.8,65.7,29.97,ESE,118,0.0,0.0,93,0.00,,CLR,0.00,VWS V14.01,2013-07-06 09:50:00,
2013-07-06 04:51:00,67.8,65.7,29.97,ESE,118,0.0,0.0,93,0.00,,CLR,0.00,VWS V14.01,2013-07-06 09:51:00,
2013-07-06 04:52:00,67.8,65.7,29.97,ESE,118,0.0,0.0,93,0.00,,CLR,0.00,VWS V14.01,2013-07-06 09:52:00,
2013-07-06 04:53:00,67.8,65.7,29.97,ESE,118,0.0,0.0,93,0.00,,CLR,0.00,VWS V14.01,2013-07-06 09:53:00,
2013-07-06 04:55:00,67.8,65.7,29.97,ESE,118,0.0,0.0,93,0.00,,CLR,0.00,VWS V14.01,2013-07-06 09:55:00,
2013-07-06 04:56:00,67.8,65.7,29.97,ESE,118,0.0,0.0,93,0.00,,CLR,0.00,VWS V14.01,2013-07-06 09:56:00,
2013-07-06 04:57:00,67.8,65.7,29.97,ESE,118,0.0,0.0,93,0.00,,CLR,0.00,VWS V14.01,2013-07-06 09:57:00,
2013-07-06 04:58:00,67.8,65.7,29.97,ESE,118,0.0,0.0,93,0.00,,CLR,0.00,VWS V14.01,2013-07-06 09:58:00,
2013-07-06 05:00:00,67.8,65.7,29.96,ESE,118,0.0,0.0,93,0.00,,CLR,0.00,VWS V14.01,2013-07-06 10:00:00,
2013-07-06 05:01:00,67.7,65.6,29.96,ESE,118,0.0,0.0,93,0.00,,CLR,0.00,VWS V14.01,2013-07-06 10:01:00,
2013-07-06 05:02:00,67.7,65.6,29.96,ESE,118,0.0,0.0,93,0.00,,CLR,0.00,VWS V14.01,2013-07-06 10:02:00,
2013-07-06 05:03:00,67.7,65.6,29.96,ESE,118,0.0,0.0,93,0.00,,CLR,0.00,VWS V14.01,2013-07-06 10:03:00,
2013-07-06 05:05:00,67.7,65.6,29.96,ESE,118,0.0,0.0,93,0.00,,CLR,0.00,VWS V14.01,2013-07-06 10:05:00,
2013-07-06 05:06:00,67.7,65.6,29.96,ESE,118,0.0,0.0,93,0.00,,CLR,0.00,VWS V14.01,2013-07-06 10:06:00,
2013-07-06 05:07:00,67.7,65.9,29.96,ESE,118,0.0,0.0,94,0.00,,CLR,0.00,VWS V14.01,2013-07-06 10:07:00,
2013-07-06 05:08:00,67.7,65.9,29.96,ESE,118,0.0,0.0,94,0.00,,CLR,0.00,VWS V14.01,2013-07-06 10:08:00,
2013-07-06 05:11:00,67.8,66.0,29.96,ESE,118,0.0,0.0,94,0.00,,CLR,0.00,VWS V14.01,2013-07-06 10:11:00,
2013-07-06 05:12:00,67.8,66.0,29.96,ESE,118,0.0,0.0,94,0.00,,CLR,0.00,VWS V14.01,2013-07-06 10:12:00,
2013-07-06 05:13:00,67.8,66.0,29.96,ESE,118,0.0,0.0,94,0.00,,CLR,0.00,VWS V14.01,2013-07-06 10:13:00,
2013-07-06 05:16:00,67.8,66.0,29.97,ESE,118,0.0,0.0,94,0.00,,CLR,0.00,VWS V14.01,2013-07-06 10:16:00,
2013-07-06 05:17:00,67.8,66.0,29.97,ESE,118,0.0,0.0,94,0.00,,CLR,0.00,VWS V14.01,2013-07-06 10:17:00,
2013-07-06 05:18:00,67.8,66.0,29.97,ESE,118,0.0,0.0,94,0.00,,CLR,0.00,VWS V14.01,2013-07-06 10:18:00,
2013-07-06 05:21:00,67.8,66.0,29.97,ESE,118,0.0,0.0,94,0.00,,CLR,0.00,VWS V14.01,2013-07-06 10:21:00,
2013-07-06 05:22:00,67.8,66.0,29.97,ESE,118,0.0,0.0,94,0.00,,CLR,0.00,VWS V14.01,2013-07-06 10:22:00,
2013-07-06 05:23:00,67.8,66.0,29.97,ESE,118,0.0,0.0,94,0.00,,CLR,0.00,VWS V14.01,2013-07-06 10:23:00,
2013-07-06 05:26:00,67.8,66.0,29.97,ESE,118,0.0,0.0,94,0.00,,CLR,0.00,VWS V14.01,2013-07-06 10:26:00,
2013-07-06 05:27:00,67.8,66.0,29.97,ESE,118,0.0,0.0,94,0.00,,CLR,0.00,VWS V14.01,2013-07-06 10:27:00,
2013-07-06 05:28:00,67.8,66.0,29.97,ESE,118,0.0,0.0,94,0.00,,CLR,0.00,VWS V14.01,2013-07-06 10:28:00,
2013-07-06 05:30:00,67.8,66.0,29.97,ESE,118,0.0,0.0,94,0.00,,,0.00,VWS V14.01,2013-07-06 10:30:00,
2013-07-06 05:31:00,67.8,66.0,29.97,ESE,118,0.0,0.0,94,0.00,,CLR,0.00,VWS V14.01,2013-07-06 10:31:00,
2013-07-06 05:33:00,67.7,65.9,29.97,ESE,118,0.0,0.0,94,0.00,,CLR,0.00,VWS V14.01,2013-07-06 10:33:00,
2013-07-06 05:34:00,67.7,65.9,29.97,ESE,118,0.0,0.0,94,0.00,,CLR,0.00,VWS V14.01,2013-07-06 10:34:00,
2013-07-06 05:36:00,67.5,65.4,29.97,ESE,118,0.0,0.0,93,0.00,,CLR,0.00,VWS V14.01,2013-07-06 10:36:00,
2013-07-06 05:38:00,67.5,65.7,29.97,ESE,118,0.0,0.0,94,0.00,,CLR,0.00,VWS V14.01,2013-07-06 10:38:00,
2013-07-06 05:39:00,67.5,65.7,29.97,ESE,118,0.0,0.0,94,0.00,,CLR,0.00,VWS V14.01,2013-07-06 10:39:00,
2013-07-06 05:42:00,67.3,65.5,29.97,ESE,118,0.0,0.0,94,0.00,,CLR,0.00,VWS V14.01,2013-07-06 10:42:00,
2013-07-06 05:43:00,67.3,65.5,29.97,ESE,118,0.0,0.0,94,0.00,,CLR,0.00,VWS V14.01,2013-07-06 10:43:00,
2013-07-06 05:44:00,67.3,65.5,29.97,ESE,118,0.0,0.0,94,0.00,,CLR,0.00,VWS V14.01,2013-07-06 10:44:00,
2013-07-06 05:47:00,67.3,65.5,29.97,ESE,118,0.0,0.0,94,0.00,,,0.00,VWS V14.01,2013-07-06 10:47:00,
2013-07-06 05:49:00,67.3,65.5,29.97,ESE,118,0.0,0.0,94,0.00,,,0.00,VWS V14.01,2013-07-06 10:49:00,
2013-07-06 05:52:00,67.3,65.5,29.97,ESE,118,0.0,0.0,94,0.00,,,0.00,VWS V14.01,2013-07-06 10:52:00,
2013-07-06 05:54:00,67.3,65.5,29.97,ESE,118,0.0,0.0,94,0.00,,,0.00,VWS V14.01,2013-07-06 10:54:00,
2013-07-06 05:57:00,67.2,65.4,29.97,ESE,118,0.0,0.0,94,0.00,,,0.00,VWS V14.01,2013-07-06 10:57:00,
2013-07-06 05:59:00,67.2,65.4,29.97,ESE,118,0.0,0.0,94,0.00,,,0.00,VWS V14.01,2013-07-06 10:59:00,
2013-07-06 06:00:00,67.2,65.4,29.97,ESE,118,0.0,0.0,94,0.00,,,0.00,VWS V14.01,2013-07-06 11:00:00,
2013-07-06 06:02:00,67.2,65.4,29.97,ESE,118,0.0,0.0,94,0.00,,CLR,0.00,VWS V14.01,2013-07-06 11:02:00,
2013-07-06 06:04:00,67.0,65.2,29.97,ESE,118,0.0,0.0,94,0.00,,CLR,0.00,VWS V14.01,2013-07-06 11:04:00,
2013-07-06 06:08:00,66.8,65.0,29.97,ESE,118,0.0,0.0,94,0.00,,CLR,0.00,VWS V14.01,2013-07-06 11:08:00,
2013-07-06 06:09:00,66.8,65.0,29.97,ESE,118,0.0,0.0,94,0.00,,CLR,0.00,VWS V14.01,2013-07-06 11:09:00,
2013-07-06 06:10:00,66.8,65.0,29.97,ESE,118,0.0,0.0,94,0.00,,CLR,0.00,VWS V14.01,2013-07-06 11:10:00,
2013-07-06 06:13:00,66.8,65.0,29.97,ESE,118,0.0,0.0,94,0.00,,CLR,0.00,VWS V14.01,2013-07-06 11:13:00,
2013-07-06 06:14:00,66.8,65.0,29.97,ESE,118,0.0,0.0,94,0.00,,CLR,0.00,VWS V14.01,2013-07-06 11:14:00,
2013-07-06 06:15:00,66.8,65.0,29.97,ESE,118,0.0,0.0,94,0.00,,CLR,0.00,VWS V14.01,2013-07-06 11:15:00,
2013-07-06 06:18:00,67.0,65.2,29.97,ESE,118,0.0,0.0,94,0.00,,CLR,0.00,VWS V14.01,2013-07-06 11:18:00,
2013-07-06 06:19:00,67.0,65.2,29.97,ESE,118,0.0,0.0,94,0.00,,CLR,0.00,VWS V14.01,2013-07-06 11:19:00,
2013-07-06 06:20:00,67.0,65.2,29.97,ESE,118,0.0,0.0,94,0.00,,CLR,0.00,VWS V14.01,2013-07-06 11:20:00,
2013-07-06 06:23:00,67.0,65.2,29.97,ESE,118,0.0,0.0,94,0.00,,CLR,0.00,VWS V14.01,2013-07-06 11:23:00,
2013-07-06 06:25:00,67.0,65.2,29.97,ESE,118,0.0,0.0,94,0.00,,CLR,0.00,VWS V14.01,2013-07-06 11:25:00,
2013-07-06 06:28:00,67.0,65.2,29.97,ESE,118,0.0,0.0,94,0.00,,CLR,0.00,VWS V14.01,2013-07-06 11:28:00,
2013-07-06 06:30:00,67.2,65.4,29.98,ESE,118,0.0,0.0,94,0.00,,CLR,0.00,VWS V14.01,2013-07-06 11:30:00,
2013-07-06 06:33:00,67.2,65.4,29.98,ESE,118,0.0,0.0,94,0.00,,CLR,0.00,VWS V14.01,2013-07-06 11:33:00,
2013-07-06 06:35:00,67.2,65.4,29.98,ESE,118,0.0,0.0,94,0.00,,CLR,0.00,VWS V14.01,2013-07-06 11:35:00,
2013-07-06 06:38:00,67.3,65.5,29.98,ESE,118,0.0,0.0,94,0.00,,CLR,0.00,VWS V14.01,2013-07-06 11:38:00,
2013-07-06 06:39:00,67.3,65.5,29.98,ESE,118,0.0,0.0,94,0.00,,CLR,0.00,VWS V14.01,2013-07-06 11:39:00,
2013-07-06 06:40:00,67.3,65.5,29.98,ESE,118,0.0,0.0,94,0.00,,CLR,0.00,VWS V14.01,2013-07-06 11:40:00,
2013-07-06 06:41:00,67.3,65.5,29.98,ESE,118,0.0,0.0,94,0.00,,CLR,0.00,VWS V14.01,2013-07-06 11:41:00,
2013-07-06 06:43:00,67.5,65.7,29.98,ESE,118,0.0,0.0,94,0.00,,CLR,0.00,VWS V14.01,2013-07-06 11:43:00,
2013-07-06 06:44:00,67.5,65.7,29.98,ESE,118,0.0,0.0,94,0.00,,CLR,0.00,VWS V14.01,2013-07-06 11:44:00,
2013-07-06 06:45:00,67.5,65.7,29.98,ESE,118,0.0,0.0,94,0.00,,CLR,0.00,VWS V14.01,2013-07-06 11:45:00,
2013-07-06 06:46:00,67.7,65.9,29.98,ESE,118,0.0,0.0,94,0.00,,,0.00,VWS V14.01,2013-07-06 11:46:00,
2013-07-06 06:48:00,67.7,65.9,29.98,ESE,118,0.0,1.0,94,0.00,,,0.00,VWS V14.01,2013-07-06 11:48:00,
2013-07-06 06:49:00,67.7,65.9,29.98,ESE,118,0.0,1.0,94,0.00,,,0.00,VWS V14.01,2013-07-06 11:49:00,
2013-07-06 06:50:00,67.7,65.9,29.98,ESE,118,0.0,1.0,94,0.00,,,0.00,VWS V14.01,2013-07-06 11:50:00,
2013-07-06 06:51:00,67.8,66.0,29.98,ESE,118,0.0,1.0,94,0.00,,,0.00,VWS V14.01,2013-07-06 11:51:00,
2013-07-06 06:54:00,67.8,66.0,29.98,ESE,118,0.0,1.0,94,0.00,,,0.00,VWS V14.01,2013-07-06 11:54:00,
2013-07-06 06:55:00,67.8,66.0,29.98,ESE,118,0.0,1.0,94,0.00,,,0.00,VWS V14.01,2013-07-06 11:55:00,
2013-07-06 06:56:00,68.0,66.5,29.98,ESE,118,0.0,1.0,95,0.00,,,0.00,VWS V14.01,2013-07-06 11:56:00,
2013-07-06 06:59:00,68.0,66.5,29.98,ESE,118,0.0,1.0,95,0.00,,,0.00,VWS V14.01,2013-07-06 11:59:00,
2013-07-06 07:00:00,68.0,66.5,29.99,ESE,118,0.0,1.0,95,0.00,,,0.00,VWS V14.01,2013-07-06 12:00:00,
2013-07-06 07:01:00,68.2,66.7,29.99,ESE,118,0.0,0.0,95,0.00,,,0.00,VWS V14.01,2013-07-06 12:01:00,
2013-07-06 07:04:00,68.2,66.7,29.99,ESE,118,0.0,1.0,95,0.00,,,0.00,VWS V14.01,2013-07-06 12:04:00,
2013-07-06 07:05:00,68.3,66.8,29.99,ESE,118,0.0,1.0,95,0.00,,,0.00,VWS V14.01,2013-07-06 12:05:00,
2013-07-06 07:06:00,68.3,66.8,29.99,ESE,118,0.0,1.0,95,0.00,,,0.00,VWS V14.01,2013-07-06 12:06:00,
2013-07-06 07:09:00,68.3,66.8,29.99,ESE,118,0.0,1.0,95,0.00,,,0.00,VWS V14.01,2013-07-06 12:09:00,
2013-07-06 07:10:00,68.5,67.0,29.99,ESE,118,0.0,1.0,95,0.00,,,0.00,VWS V14.01,2013-07-06 12:10:00,
2013-07-06 07:11:00,68.5,66.7,29.99,ESE,118,0.0,1.0,94,0.00,,,0.00,VWS V14.01,2013-07-06 12:11:00,
2013-07-06 07:14:00,68.5,66.7,29.99,SE,126,2.0,2.0,94,0.00,,,0.00,VWS V14.01,2013-07-06 12:14:00,
2013-07-06 07:15:00,68.5,66.7,30.00,SSE,165,0.0,2.0,94,0.00,,,0.00,VWS V14.01,2013-07-06 12:15:00,
2013-07-06 07:16:00,68.5,66.7,30.00,SSE,167,3.0,3.0,94,0.00,,,0.00,VWS V14.01,2013-07-06 12:16:00,
2013-07-06 07:17:00,68.5,66.7,30.00,SE,130,2.0,3.0,94,0.00,,,0.00,VWS V14.01,2013-07-06 12:17:00,
2013-07-06 07:19:00,68.5,66.7,30.00,South,172,0.0,4.0,94,0.00,,,0.00,VWS V14.01,2013-07-06 12:19:00,
2013-07-06 07:20:00,68.5,66.7,30.00,South,176,0.0,4.0,94,0.00,,,0.00,VWS V14.01,2013-07-06 12:20:00,
2013-07-06 07:21:00,68.5,66.7,30.00,South,176,0.0,4.0,94,0.00,,,0.00,VWS V14.01,2013-07-06 12:21:00,
2013-07-06 07:22:00,68.5,66.7,30.00,South,176,0.0,4.0,94,0.00,,,0.00,VWS V14.01,2013-07-06 12:22:00,
2013-07-06 07:24:00,68.7,66.9,30.00,ESE,113,0.0,4.0,94,0.00,,,0.00,VWS V14.01,2013-07-06 12:24:00,
2013-07-06 07:26:00,68.7,66.9,30.00,ESE,115,0.0,4.0,94,0.00,,,0.00,VWS V14.01,2013-07-06 12:26:00,
2013-07-06 07:27:00,68.7,66.9,30.00,SSW,205,4.0,4.0,94,0.00,,,0.00,VWS V14.01,2013-07-06 12:27:00,
2013-07-06 07:30:00,68.7,66.9,29.99,South,190,0.0,4.0,94,0.00,,,0.00,VWS V14.01,2013-07-06 12:30:00,
2013-07-06 07:31:00,68.7,66.9,29.99,SSW,195,2.0,2.0,94,0.00,,,0.00,VWS V14.01,2013-07-06 12:31:00,
2013-07-06 07:32:00,68.7,66.9,29.99,SSW,196,0.0,4.0,94,0.00,,,0.00,VWS V14.01,2013-07-06 12:32:00,
2013-07-06 07:35:00,68.8,67.0,29.99,SSW,196,0.0,4.0,94,0.00,,,0.00,VWS V14.01,2013-07-06 12:35:00,
2013-07-06 07:36:00,68.8,67.0,29.99,SSW,196,0.0,4.0,94,0.00,,,0.00,VWS V14.01,2013-07-06 12:36:00,
2013-07-06 07:37:00,68.8,67.0,29.99,SSW,196,0.0,4.0,94,0.00,,,0.00,VWS V14.01,2013-07-06 12:37:00,
2013-07-06 07:40:00,68.8,67.0,29.99,South,185,2.0,5.0,94,0.00,,,0.00,VWS V14.01,2013-07-06 12:40:00,
2013-07-06 07:41:00,68.8,67.0,29.99,South,185,0.0,5.0,94,0.00,,,0.00,VWS V14.01,2013-07-06 12:41:00,
2013-07-06 07:42:00,69.0,67.2,29.99,South,185,0.0,5.0,94,0.00,,,0.00,VWS V14.01,2013-07-06 12:42:00,
2013-07-06 07:46:00,69.0,67.2,29.98,South,181,0.0,5.0,94,0.00,,,0.00,VWS V14.01,2013-07-06 12:46:00,
2013-07-06 07:47:00,69.0,67.2,29.98,South,180,2.0,5.0,94,0.00,,,0.00,VWS V14.01,2013-07-06 12:47:00,
2013-07-06 07:51:00,69.2,67.4,29.98,South,184,1.0,5.0,94,0.00,,,0.00,VWS V14.01,2013-07-06 12:51:00,
2013-07-06 07:52:00,69.2,67.4,29.98,SSW,202,4.0,5.0,94,0.00,,,0.00,VWS V14.01,2013-07-06 12:52:00,
2013-07-06 07:56:00,69.3,67.5,29.98,SSW,205,0.0,5.0,94,0.00,,,0.00,VWS V14.01,2013-07-06 12:56:00,
2013-07-06 07:57:00,69.3,67.5,29.98,South,174,0.0,5.0,94,0.00,,,0.00,VWS V14.01,2013-07-06 12:57:00,
2013-07-06 08:00:00,69.5,67.7,29.99,SSW,205,4.0,5.0,94,0.00,,,0.00,VWS V14.01,2013-07-06 13:00:00,
2013-07-06 08:01:00,69.5,67.7,29.99,South,188,2.0,5.0,94,0.00,,,0.00,VWS V14.01,2013-07-06 13:01:00,
2013-07-06 08:02:00,69.5,67.7,29.99,South,188,0.0,5.0,94,0.00,,,0.00,VWS V14.01,2013-07-06 13:02:00,
2013-07-06 08:03:00,69.5,67.7,29.99,South,183,1.0,5.0,94,0.00,,,0.00,VWS V14.01,2013-07-06 13:03:00,
2013-07-06 08:06:00,69.5,67.7,29.99,SSW,197,0.0,5.0,94,0.00,,,0.00,VWS V14.01,2013-07-06 13:06:00,
2013-07-06 08:07:00,69.5,67.7,29.99,South,190,1.0,5.0,94,0.00,,,0.00,VWS V14.01,2013-07-06 13:07:00,
2013-07-06 08:08:00,69.5,67.7,29.99,SSW,206,6.0,7.0,94,0.00,,,0.00,VWS V14.01,2013-07-06 13:08:00,
2013-07-06 08:11:00,69.7,67.9,29.99,SW,221,6.0,7.0,94,0.00,,,0.00,VWS V14.01,2013-07-06 13:11:00,
2013-07-06 08:12:00,69.7,67.9,29.99,SE,140,4.0,7.0,94,0.00,,,0.00,VWS V14.01,2013-07-06 13:12:00,
2013-07-06 08:13:00,69.7,67.9,29.99,South,182,4.0,7.0,94,0.00,,,0.00,VWS V14.01,2013-07-06 13:13:00,
2013-07-06 08:16:00,69.8,68.0,30.00,SSE,167,0.0,7.0,94,0.00,,,0.00,VWS V14.01,2013-07-06 13:16:00,
2013-07-06 08:17:00,69.8,68.0,30.00,South,191,0.0,7.0,94,0.00,,,0.00,VWS V14.01,2013-07-06 13:17:00,
2013-07-06 08:18:00,69.8,68.0,30.00,South,191,0.0,7.0,94,0.00,,,0.00,VWS V14.01,2013-07-06 13:18:00,
2013-07-06 08:21:00,70.0,68.2,30.00,South,189,0.0,7.0,94,0.00,,,0.00,VWS V14.01,2013-07-06 13:21:00,
2013-07-06 08:22:00,70.0,68.2,30.00,South,190,0.0,7.0,94,0.00,,,0.00,VWS V14.01,2013-07-06 13:22:00,
2013-07-06 08:23:00,70.2,68.4,30.00,South,189,0.0,7.0,94,0.00,,,0.00,VWS V14.01,2013-07-06 13:23:00,
2013-07-06 08:26:00,70.2,68.4,30.00,SE,146,0.0,7.0,94,0.00,,,0.00,VWS V14.01,2013-07-06 13:26:00,
2013-07-06 08:27:00,70.3,68.5,30.00,SSE,147,0.0,7.0,94,0.00,,,0.00,VWS V14.01,2013-07-06 13:27:00,
2013-07-06 08:28:00,70.3,68.2,30.00,South,190,0.0,7.0,93,0.00,,,0.00,VWS V14.01,2013-07-06 13:28:00,
2013-07-06 08:30:00,70.3,68.2,30.00,East,98,0.0,7.0,93,0.00,,,0.00,VWS V14.01,2013-07-06 13:30:00,
2013-07-06 08:31:00,70.3,68.2,30.00,South,173,0.0,1.0,93,0.00,,,0.00,VWS V14.01,2013-07-06 13:31:00,
2013-07-06 08:32:00,70.3,68.2,30.00,South,173,0.0,1.0,93,0.00,,,0.00,VWS V14.01,2013-07-06 13:32:00,
2013-07-06 08:33:00,70.3,68.2,30.00,SSW,194,3.0,3.0,93,0.00,,,0.00,VWS V14.01,2013-07-06 13:33:00,
2013-07-06 08:34:00,70.3,68.2,30.00,South,185,1.0,3.0,93,0.00,,,0.00,VWS V14.01,2013-07-06 13:34:00,
2013-07-06 08:36:00,70.3,68.2,30.00,SSW,195,1.0,7.0,93,0.00,,,0.00,VWS V14.01,2013-07-06 13:36:00,
2013-07-06 08:37:00,70.3,68.2,30.00,SSW,192,4.0,7.0,93,0.00,,,0.00,VWS V14.01,2013-07-06 13:37:00,
2013-07-06 08:38:00,70.3,68.2,30.00,South,191,2.0,7.0,93,0.00,,,0.00,VWS V14.01,2013-07-06 13:38:00,
2013-07-06 08:39:00,70.5,68.4,30.00,South,191,0.0,7.0,93,0.00,,,0.00,VWS V14.01,2013-07-06 13:39:00,
2013-07-06 08:42:00,70.7,68.6,30.00,South,190,0.0,7.0,93,0.00,,,0.00,VWS V14.01,2013-07-06 13:42:00,
2013-07-06 08:43:00,70.7,68.6,30.00,South,188,0.0,7.0,93,0.00,,,0.00,VWS V14.01,2013-07-06 13:43:00,
2013-07-06 08:44:00,70.8,68.7,30.00,South,177,0.0,7.0,93,0.00,,,0.00,VWS V14.01,2013-07-06 13:44:00,
2013-07-06 08:47:00,70.8,68.4,30.00,SSW,208,2.0,7.0,92,0.00,,,0.00,VWS V14.01,2013-07-06 13:47:00,
2013-07-06 08:48:00,70.8,68.4,30.00,SSW,208,0.0,7.0,92,0.00,,,0.00,VWS V14.01,2013-07-06 13:48:00,
2013-07-06 08:49:00,70.8,68.4,30.00,SSW,208,0.0,7.0,92,0.00,,,0.00,VWS V14.01,2013-07-06 13:49:00,
2013-07-06 08:52:00,70.8,68.4,30.00,SSW,208,0.0,7.0,92,0.00,,,0.00,VWS V14.01,2013-07-06 13:52:00,
2013-07-06 08:53:00,71.0,68.6,30.00,SSW,208,0.0,7.0,92,0.00,,,0.00,VWS V14.01,2013-07-06 13:53:00,
2013-07-06 08:54:00,71.0,68.6,30.00,SSW,205,0.0,7.0,92,0.00,,,0.00,VWS V14.01,2013-07-06 13:54:00,
2013-07-06 08:57:00,70.8,68.1,30.00,SSW,207,5.0,7.0,91,0.00,,,0.00,VWS V14.01,2013-07-06 13:57:00,
2013-07-06 08:58:00,70.8,68.1,30.00,SSW,210,3.0,7.0,91,0.00,,,0.00,VWS V14.01,2013-07-06 13:58:00,
2013-07-06 08:59:00,70.8,68.1,30.00,SSW,209,0.0,7.0,91,0.00,,,0.00,VWS V14.01,2013-07-06 13:59:00,
2013-07-06 09:00:00,70.8,68.1,30.00,SSW,210,0.0,7.0,91,0.00,,,0.00,VWS V14.01,2013-07-06 14:00:00,
2013-07-06 09:02:00,70.8,68.1,30.00,SSE,163,1.0,5.0,91,0.00,,,0.00,VWS V14.01,2013-07-06 14:02:00,
2013-07-06 09:03:00,70.8,68.1,30.00,SSE,164,3.0,5.0,91,0.00,,,0.00,VWS V14.01,2013-07-06 14:03:00,
2013-07-06 09:04:00,70.8,68.1,30.00,SSE,167,0.0,5.0,91,0.00,,,0.00,VWS V14.01,2013-07-06 14:04:00,
2013-07-06 09:05:00,70.8,68.1,30.00,SSW,196,2.0,5.0,91,0.00,,,0.00,VWS V14.01,2013-07-06 14:05:00,
2013-07-06 09:08:00,71.0,68.2,30.00,SSW,207,0.0,5.0,91,0.00,,,0.00,VWS V14.01,2013-07-06 14:08:00,
2013-07-06 09:09:00,71.0,68.2,30.00,SSW,199,0.0,5.0,91,0.00,,,0.00,VWS V14.01,2013-07-06 14:09:00,
2013-07-06 09:10:00,71.0,68.2,30.00,SSW,198,0.0,5.0,91,0.00,,,0.00,VWS V14.01,2013-07-06 14:10:00,
2013-07-06 09:13:00,71.0,68.2,30.00,South,179,3.0,6.0,91,0.00,,,0.00,VWS V14.01,2013-07-06 14:13:00,
2013-07-06 09:14:00,71.0,68.2,30.00,South,179,2.0,7.0,91,0.00,,,0.00,VWS V14.01,2013-07-06 14:14:00,
2013-07-06 09:15:00,71.0,68.2,30.00,South,179,1.0,7.0,91,0.00,,,0.00,VWS V14.01,2013-07-06 14:15:00,
2013-07-06 09:18:00,71.2,68.4,30.00,South,178,0.0,7.0,91,0.00,,,0.00,VWS V14.01,2013-07-06 14:18:00,
2013-07-06 09:19:00,71.2,68.4,30.00,South,178,0.0,7.0,91,0.00,,,0.00,VWS V14.01,2013-07-06 14:19:00,
2013-07-06 09:20:00,71.2,68.4,30.00,South,178,0.0,7.0,91,0.00,,,0.00,VWS V14.01,2013-07-06 14:20:00,
2013-07-06 09:23:00,71.4,68.3,30.00,South,184,0.0,7.0,90,0.00,,,0.00,VWS V14.01,2013-07-06 14:23:00,
2013-07-06 09:24:00,71.4,68.3,30.00,South,189,2.0,7.0,90,0.00,,,0.00,VWS V14.01,2013-07-06 14:24:00,
2013-07-06 09:25:00,71.4,68.3,30.00,South,189,0.0,7.0,90,0.00,,,0.00,VWS V14.01,2013-07-06 14:25:00,
2013-07-06 09:28:00,71.5,68.4,30.00,South,182,0.0,7.0,90,0.00,,,0.00,VWS V14.01,2013-07-06 14:28:00,
2013-07-06 09:29:00,71.7,68.6,30.00,South,179,0.0,7.0,90,0.00,,,0.00,VWS V14.01,2013-07-06 14:29:00,
2013-07-06 09:30:00,71.7,68.6,30.00,South,175,0.0,7.0,90,0.00,,,0.00,VWS V14.01,2013-07-06 14:30:00,
2013-07-06 09:33:00,71.9,68.8,30.00,South,175,0.0,0.0,90,0.00,,,0.00,VWS V14.01,2013-07-06 14:33:00,
2013-07-06 09:34:00,72.0,68.6,30.00,South,175,0.0,0.0,89,0.00,,,0.00,VWS V14.01,2013-07-06 14:34:00,
2013-07-06 09:35:00,72.0,68.6,30.00,South,175,0.0,1.0,89,0.00,,,0.00,VWS V14.01,2013-07-06 14:35:00,
2013-07-06 09:38:00,71.9,68.2,30.00,South,190,4.0,5.0,88,0.00,,,0.00,VWS V14.01,2013-07-06 14:38:00,
2013-07-06 09:39:00,71.9,68.2,30.00,South,190,0.0,5.0,88,0.00,,,0.00,VWS V14.01,2013-07-06 14:39:00,
2013-07-06 09:40:00,72.0,68.3,30.00,South,190,0.0,5.0,88,0.00,,,0.00,VWS V14.01,2013-07-06 14:40:00,
2013-07-06 09:43:00,72.2,68.4,30.00,SSW,192,0.0,5.0,88,0.00,,,0.00,VWS V14.01,2013-07-06 14:43:00,
2013-07-06 09:44:00,72.2,68.4,30.00,ESE,119,2.0,5.0,88,0.00,,,0.00,VWS V14.01,2013-07-06 14:44:00,
2013-07-06 09:45:00,72.2,68.4,30.00,ESE,119,0.0,5.0,88,0.00,,,0.00,VWS V14.01,2013-07-06 14:45:00,
2013-07-06 09:46:00,72.2,68.4,30.00,ESE,119,0.0,5.0,88,0.00,,OVC005,0.00,VWS V14.01,2013-07-06 14:46:00,
2013-07-06 09:49:00,72.4,68.3,30.00,ESE,122,0.0,5.0,87,0.00,,OVC005,0.00,VWS V14.01,2013-07-06 14:49:00,
2013-07-06 09:50:00,72.6,68.5,30.00,ESE,122,0.0,5.0,87,0.00,,OVC005,0.00,VWS V14.01,2013-07-06 14:50:00,
2013-07-06 09:51:00,72.6,68.5,30.00,ESE,122,0.0,5.0,87,0.00,,OVC005,0.00,VWS V14.01,2013-07-06 14:51:00,
2013-07-06 09:54:00,72.7,68.3,30.00,ESE,122,0.0,5.0,86,0.00,,OVC005,0.00,VWS V14.01,2013-07-06 14:54:00,
2013-07-06 09:55:00,72.7,68.6,30.00,SSE,150,4.0,5.0,87,0.00,,OVC005,0.00,VWS V14.01,2013-07-06 14:55:00,
2013-07-06 09:56:00,72.7,68.3,30.00,South,184,0.0,5.0,86,0.00,,OVC005,0.00,VWS V14.01,2013-07-06 14:56:00,
2013-07-06 09:59:00,72.7,67.9,30.00,South,187,0.0,5.0,85,0.00,,OVC005,0.00,VWS V14.01,2013-07-06 14:59:00,
2013-07-06 10:00:00,72.7,67.9,29.99,South,187,0.0,5.0,85,0.00,,OVC005,0.00,VWS V14.01,2013-07-06 15:00:00,
2013-07-06 10:01:00,72.7,67.9,29.99,South,187,0.0,5.0,85,0.00,,,0.00,VWS V14.01,2013-07-06 15:01:00,
2013-07-06 10:04:00,73.2,68.4,29.99,SE,141,0.0,1.0,85,0.00,,,0.00,VWS V14.01,2013-07-06 15:04:00,
2013-07-06 10:05:00,73.4,68.3,29.99,SSE,159,0.0,1.0,84,0.00,,,0.00,VWS V14.01,2013-07-06 15:05:00,
2013-07-06 10:06:00,73.4,68.3,29.99,SSE,159,0.0,1.0,84,0.00,,,0.00,VWS V14.01,2013-07-06 15:06:00,
2013-07-06 10:09:00,73.6,68.1,29.99,SE,128,0.0,1.0,83,0.00,,,0.00,VWS V14.01,2013-07-06 15:09:00,
2013-07-06 10:10:00,73.6,68.1,29.99,SE,128,0.0,1.0,83,0.00,,,0.00,VWS V14.01,2013-07-06 15:10:00,
2013-07-06 10:11:00,73.6,68.1,29.99,SE,128,0.0,1.0,83,0.00,,,0.00,VWS V14.01,2013-07-06 15:11:00,
2013-07-06 10:14:00,74.1,69.0,29.99,SE,128,0.0,1.0,84,0.00,,,0.00,VWS V14.01,2013-07-06 15:14:00,
2013-07-06 10:15:00,74.1,68.6,29.99,SE,128,0.0,1.0,83,0.00,,,0.00,VWS V14.01,2013-07-06 15:15:00,
2013-07-06 10:16:00,74.1,68.6,29.99,SE,128,0.0,1.0,83,0.00,,,0.00,VWS V14.01,2013-07-06 15:16:00,
2013-07-06 10:19:00,74.1,68.3,29.99,SSE,153,0.0,1.0,82,0.00,,,0.00,VWS V14.01,2013-07-06 15:19:00,
2013-07-06 10:20:00,74.3,68.4,29.99,SSE,153,0.0,1.0,82,0.00,,,0.00,VWS V14.01,2013-07-06 15:20:00,
2013-07-06 10:21:00,74.3,68.1,29.99,SSE,153,0.0,1.0,81,0.00,,,0.00,VWS V14.01,2013-07-06 15:21:00,
2013-07-06 10:22:00,74.3,68.4,29.99,SSE,153,0.0,1.0,82,0.00,,,0.00,VWS V14.01,2013-07-06 15:22:00,
2013-07-06 10:24:00,74.8,68.9,29.99,SSE,153,0.0,1.0,82,0.00,,,0.00,VWS V14.01,2013-07-06 15:24:00,
2013-07-06 10:25:00,74.8,68.6,29.99,SSE,161,0.0,1.0,81,0.00,,,0.00,VWS V14.01,2013-07-06 15:25:00,
2013-07-06 10:26:00,75.0,68.8,29.99,SSE,161,0.0,1.0,81,0.00,,,0.00,VWS V14.01,2013-07-06 15:26:00,
2013-07-06 10:27:00,75.0,68.4,29.99,SSE,164,0.0,1.0,80,0.00,,,0.00,VWS V14.01,2013-07-06 15:27:00,
2013-07-06 10:29:00,75.0,68.4,29.99,SSE,155,0.0,1.0,80,0.00,,,0.00,VWS V14.01,2013-07-06 15:29:00,
2013-07-06 10:30:00,75.0,68.4,29.99,SSE,159,0.0,1.0,80,0.00,,,0.00,VWS V14.01,2013-07-06 15:30:00,
2013-07-06 10:31:00,75.0,68.8,29.99,SSE,159,0.0,0.0,81,0.00,,,0.00,VWS V14.01,2013-07-06 15:31:00,
2013-07-06 10:32:00,75.0,68.4,29.99,SSE,159,0.0,0.0,80,0.00,,,0.00,VWS V14.01,2013-07-06 15:32:00,
2013-07-06 10:34:00,75.0,68.8,29.99,SE,142,0.0,1.0,81,0.00,,,0.00,VWS V14.01,2013-07-06 15:34:00,
2013-07-06 10:36:00,75.0,68.4,29.99,SE,143,0.0,1.0,80,0.00,,,0.00,VWS V14.01,2013-07-06 15:36:00,
2013-07-06 10:37:00,75.0,68.8,29.99,SSE,157,1.0,1.0,81,0.00,,,0.00,VWS V14.01,2013-07-06 15:37:00,
2013-07-06 10:38:00,75.0,68.4,29.99,South,189,0.0,6.0,80,0.00,,,0.00,VWS V14.01,2013-07-06 15:38:00,
2013-07-06 10:39:00,75.2,68.6,29.99,South,190,0.0,6.0,80,0.00,,,0.00,VWS V14.01,2013-07-06 15:39:00,
2013-07-06 10:41:00,75.3,68.7,29.99,South,180,0.0,6.0,80,0.00,,,0.00,VWS V14.01,2013-07-06 15:41:00,
2013-07-06 10:42:00,75.3,68.7,29.99,South,180,0.0,6.0,80,0.00,,,0.00,VWS V14.01,2013-07-06 15:42:00,
2013-07-06 10:43:00,75.5,68.9,29.99,SE,127,0.0,6.0,80,0.00,,,0.00,VWS V14.01,2013-07-06 15:43:00,
2013-07-06 10:44:00,75.5,68.9,29.99,ESE,115,0.0,6.0,80,0.00,,,0.00,VWS V14.01,2013-07-06 15:44:00,
2013-07-06 10:46:00,75.5,68.9,30.00,SSW,192,2.0,6.0,80,0.00,,OVC009,0.00,VWS V14.01,2013-07-06 15:46:00,
2013-07-06 10:47:00,75.7,68.7,30.00,SSW,192,0.0,6.0,79,0.00,,OVC009,0.00,VWS V14.01,2013-07-06 15:47:00,
2013-07-06 10:48:00,75.9,69.7,30.00,SSW,192,5.0,6.0,81,0.00,,OVC009,0.00,VWS V14.01,2013-07-06 15:48:00,
2013-07-06 10:49:00,75.9,68.9,30.00,South,191,0.0,6.0,79,0.00,,OVC009,0.00,VWS V14.01,2013-07-06 15:49:00,
2013-07-06 10:51:00,75.9,68.9,30.00,South,191,0.0,6.0,79,0.00,,OVC009,0.00,VWS V14.01,2013-07-06 15:51:00,
2013-07-06 10:52:00,76.0,69.0,30.00,South,186,0.0,6.0,79,0.00,,OVC009,0.00,VWS V14.01,2013-07-06 15:52:00,
2013-07-06 10:54:00,75.9,68.9,30.00,SSW,192,4.0,6.0,79,0.00,,OVC009,0.00,VWS V14.01,2013-07-06 15:54:00,
2013-07-06 10:55:00,75.9,68.6,30.00,SSW,192,1.0,6.0,78,0.00,,OVC009,0.00,VWS V14.01,2013-07-06 15:55:00,
2013-07-06 10:56:00,75.9,68.6,30.00,SSW,192,0.0,6.0,78,0.00,,OVC009,0.00,VWS V14.01,2013-07-06 15:56:00,
2013-07-06 10:57:00,75.9,68.9,30.00,SSW,192,0.0,6.0,79,0.00,,OVC009,0.00,VWS V14.01,2013-07-06 15:57:00,
2013-07-06 10:59:00,75.9,68.6,30.00,SSW,192,0.0,6.0,78,0.00,,OVC009,0.00,VWS V14.01,2013-07-06 15:59:00,
2013-07-06 11:00:00,75.9,68.6,30.00,SSW,192,0.0,6.0,78,0.00,,,0.00,VWS V14.01,2013-07-06 16:00:00,
2013-07-06 11:02:00,76.0,68.3,30.00,South,189,0.0,0.0,77,0.00,,OVC011,0.00,VWS V14.01,2013-07-06 16:02:00,
2013-07-06 11:03:00,75.9,68.2,30.00,South,190,6.0,9.0,77,0.00,,OVC011,0.00,VWS V14.01,2013-07-06 16:03:00,
2013-07-06 11:04:00,75.9,68.2,30.00,South,175,1.0,9.0,77,0.00,,OVC011,0.00,VWS V14.01,2013-07-06 16:04:00,
2013-07-06 11:07:00,75.5,67.8,30.00,South,179,1.0,9.0,77,0.00,,OVC011,0.00,VWS V14.01,2013-07-06 16:07:00,
2013-07-06 11:08:00,75.5,67.8,30.00,South,170,0.0,9.0,77,0.00,,OVC011,0.00,VWS V14.01,2013-07-06 16:08:00,
2013-07-06 11:09:00,75.5,67.8,30.00,ESE,116,0.0,9.0,77,0.00,,OVC011,0.00,VWS V14.01,2013-07-06 16:09:00,
2013-07-06 11:13:00,76.0,69.0,30.00,SE,130,1.0,9.0,79,0.00,,OVC011,0.00,VWS V14.01,2013-07-06 16:13:00,
2013-07-06 11:14:00,76.2,68.5,30.00,ESE,118,3.0,9.0,77,0.00,,OVC011,0.00,VWS V14.01,2013-07-06 16:14:00,
2013-07-06 11:16:00,76.4,68.7,29.99,ESE,105,0.0,9.0,77,0.00,,OVC011,0.00,VWS V14.01,2013-07-06 16:16:00,
2013-07-06 11:18:00,76.6,68.1,29.99,ESE,106,0.0,9.0,75,0.00,,OVC011,0.00,VWS V14.01,2013-07-06 16:18:00,
2013-07-06 11:20:00,76.7,68.2,29.99,ESE,105,0.0,9.0,75,0.00,,OVC011,0.00,VWS V14.01,2013-07-06 16:20:00,
2013-07-06 11:21:00,77.1,69.0,29.99,ESE,105,0.0,9.0,76,0.00,,OVC011,0.00,VWS V14.01,2013-07-06 16:21:00,
2013-07-06 11:25:00,77.1,67.8,29.99,ESE,107,0.0,9.0,73,0.00,,OVC011,0.00,VWS V14.01,2013-07-06 16:25:00,
2013-07-06 11:26:00,76.9,67.6,29.99,SSW,192,0.0,9.0,73,0.00,,OVC011,0.00,VWS V14.01,2013-07-06 16:26:00,
2013-07-06 11:30:00,76.7,67.4,30.00,SSW,192,2.0,9.0,73,0.00,,OVC011,0.00,VWS V14.01,2013-07-06 16:30:00,
2013-07-06 11:31:00,76.6,67.7,30.00,South,191,0.0,1.0,74,0.00,,OVC011,0.00,VWS V14.01,2013-07-06 16:31:00,
2013-07-06 11:32:00,76.6,67.7,30.00,South,191,0.0,1.0,74,0.00,,OVC011,0.00,VWS V14.01,2013-07-06 16:32:00,
2013-07-06 11:36:00,76.6,68.1,30.00,South,178,0.0,1.0,75,0.00,,OVC011,0.00,VWS V14.01,2013-07-06 16:36:00,
2013-07-06 11:37:00,76.6,67.7,30.00,SE,125,6.0,6.0,74,0.00,,OVC011,0.00,VWS V14.01,2013-07-06 16:37:00,
2013-07-06 11:41:00,76.6,66.9,30.00,SE,137,1.0,7.0,72,0.00,,OVC011,0.00,VWS V14.01,2013-07-06 16:41:00,
2013-07-06 11:42:00,76.6,67.3,30.00,SSW,192,1.0,7.0,73,0.00,,OVC011,0.00,VWS V14.01,2013-07-06 16:42:00,
2013-07-06 11:46:00,76.9,68.4,29.99,South,191,0.0,7.0,75,0.00,,SCT015,0.00,VWS V14.01,2013-07-06 16:46:00,
2013-07-06 11:47:00,77.1,69.0,29.99,South,190,0.0,7.0,76,0.00,,SCT015,0.00,VWS V14.01,2013-07-06 16:47:00,
2013-07-06 11:48:00,77.1,68.6,29.99,South,189,0.0,7.0,75,0.00,,SCT015,0.00,VWS V14.01,2013-07-06 16:48:00,
2013-07-06 11:52:00,77.5,68.2,29.99,South,189,0.0,7.0,73,0.00,,SCT015,0.00,VWS V14.01,2013-07-06 16:52:00,
2013-07-06 11:54:00,78.0,69.1,29.99,South,188,0.0,7.0,74,0.00,,SCT015,0.00,VWS V14.01,2013-07-06 16:54:00,
2013-07-06 11:58:00,78.4,67.4,29.99,SSW,194,4.0,7.0,69,0.00,,SCT015,0.00,VWS V14.01,2013-07-06 16:58:00,
2013-07-06 11:59:00,78.4,67.4,29.99,South,190,2.0,7.0,69,0.00,,SCT015,0.00,VWS V14.01,2013-07-06 16:59:00,
2013-07-06 12:00:00,78.4,68.2,29.98,South,186,0.0,7.0,71,0.00,,,0.00,VWS V14.01,2013-07-06 17:00:00,
2013-07-06 12:04:00,78.5,68.7,29.98,SSW,198,0.0,5.0,72,0.00,,SCT017,0.00,VWS V14.01,2013-07-06 17:04:00,
2013-07-06 12:09:00,78.5,67.5,29.98,South,188,0.0,5.0,69,0.00,,SCT017,0.00,VWS V14.01,2013-07-06 17:09:00,
2013-07-06 12:10:00,78.5,67.5,29.98,South,188,0.0,5.0,69,0.00,,SCT017,0.00,VWS V14.01,2013-07-06 17:10:00,
2013-07-06 12:15:00,78.9,68.3,29.98,East,101,0.0,5.0,70,0.00,,SCT017,0.00,VWS V14.01,2013-07-06 17:15:00,
2013-07-06 12:16:00,79.1,68.5,29.98,ESE,102,0.0,5.0,70,0.00,,SCT017,0.00,VWS V14.01,2013-07-06 17:16:00,
2013-07-06 12:20:00,79.7,68.2,29.98,SSW,200,5.0,5.0,68,0.00,,SCT017,0.00,VWS V14.01,2013-07-06 17:20:00,
2013-07-06 12:21:00,79.5,68.0,29.98,SSW,202,2.0,5.0,68,0.00,,SCT017,0.00,VWS V14.01,2013-07-06 17:21:00,
2013-07-06 12:27:00,79.5,68.4,29.98,SSW,195,0.0,5.0,69,0.00,,SCT017,0.00,VWS V14.01,2013-07-06 17:27:00,
2013-07-06 12:28:00,79.3,67.8,29.98,SE,124,5.0,5.0,68,0.00,,SCT017,0.00,VWS V14.01,2013-07-06 17:28:00,
2013-07-06 12:30:00,79.3,68.3,29.98,South,185,0.0,5.0,69,0.00,,,0.00,VWS V14.01,2013-07-06 17:30:00,
2013-07-06 12:33:00,79.7,68.2,29.98,South,185,0.0,0.0,68,0.00,,CLR,0.00,VWS V14.01,2013-07-06 17:33:00,
2013-07-06 12:34:00,79.8,68.3,29.98,South,185,0.0,0.0,68,0.00,,CLR,0.00,VWS V14.01,2013-07-06 17:34:00,
2013-07-06 12:41:00,81.1,68.2,29.98,SSE,167,0.0,1.0,65,0.00,,CLR,0.00,VWS V14.01,2013-07-06 17:41:00,
2013-07-06 12:42:00,81.1,67.8,29.98,SSE,168,0.0,1.0,64,0.00,,CLR,0.00,VWS V14.01,2013-07-06 17:42:00,
2013-07-06 12:46:00,80.8,67.5,29.97,South,188,3.0,6.0,64,0.00,,CLR,0.00,VWS V14.01,2013-07-06 17:46:00,
2013-07-06 12:47:00,80.8,67.5,29.97,South,188,0.0,6.0,64,0.00,,CLR,0.00,VWS V14.01,2013-07-06 17:47:00,
2013-07-06 12:49:00,80.4,67.1,29.97,South,188,0.0,6.0,64,0.00,,CLR,0.00,VWS V14.01,2013-07-06 17:49:00,
2013-07-06 12:51:00,80.6,68.2,29.97,South,190,0.0,6.0,66,0.00,,CLR,0.00,VWS V14.01,2013-07-06 17:51:00,
2013-07-06 12:54:00,80.6,68.2,29.97,South,191,3.0,6.0,66,0.00,,CLR,0.00,VWS V14.01,2013-07-06 17:54:00,
2013-07-06 12:55:00,80.4,68.0,29.97,South,188,0.0,6.0,66,0.00,,CLR,0.00,VWS V14.01,2013-07-06 17:55:00,
2013-07-06 12:57:00,80.2,68.3,29.97,South,189,0.0,8.0,67,0.00,,CLR,0.00,VWS V14.01,2013-07-06 17:57:00,
2013-07-06 12:59:00,80.0,67.6,29.97,South,189,0.0,8.0,66,0.00,,CLR,0.00,VWS V14.01,2013-07-06 17:59:00,
2013-07-06 13:00:00,80.0,67.6,29.97,South,189,0.0,8.0,66,0.00,,,0.00,VWS V14.01,2013-07-06 18:00:00,
2013-07-06 13:03:00,80.0,67.2,29.97,South,189,0.0,1.0,65,0.00,,SCT024,0.00,VWS V14.01,2013-07-06 18:03:00,
2013-07-06 13:04:00,80.0,67.6,29.97,South,189,0.0,1.0,66,0.00,,SCT024,0.00,VWS V14.01,2013-07-06 18:04:00,
2013-07-06 13:08:00,79.8,66.6,29.97,South,186,2.0,7.0,64,0.00,,SCT024,0.00,VWS V14.01,2013-07-06 18:08:00,
2013-07-06 13:10:00,79.7,66.9,29.97,SSW,198,4.0,7.0,65,0.00,,SCT024,0.00,VWS V14.01,2013-07-06 18:10:00,
2013-07-06 13:14:00,79.7,67.3,29.97,SSW,207,0.0,7.0,66,0.00,,SCT024,0.00,VWS V14.01,2013-07-06 18:14:00,
2013-07-06 13:15:00,79.7,66.9,29.97,SSW,196,3.0,7.0,65,0.00,,SCT024,0.00,VWS V14.01,2013-07-06 18:15:00,
2013-07-06 13:20:00,79.8,67.4,29.96,South,190,0.0,7.0,66,0.00,,SCT024,0.00,VWS V14.01,2013-07-06 18:20:00,
2013-07-06 13:21:00,80.0,67.6,29.96,South,190,0.0,7.0,66,0.00,,SCT024,0.00,VWS V14.01,2013-07-06 18:21:00,
2013-07-06 13:25:00,80.4,68.0,29.96,South,190,0.0,7.0,66,0.00,,SCT024,0.00,VWS V14.01,2013-07-06 18:25:00,
2013-07-06 13:26:00,80.4,68.0,29.96,South,190,0.0,7.0,66,0.00,,SCT024,0.00,VWS V14.01,2013-07-06 18:26:00,
2013-07-06 13:30:00,80.4,67.6,29.96,SSW,192,0.0,7.0,65,0.00,,,0.00,VWS V14.01,2013-07-06 18:30:00,
2013-07-06 13:31:00,80.4,67.6,29.96,SSW,192,0.0,0.0,65,0.00,,SCT024,0.00,VWS V14.01,2013-07-06 18:31:00,
2013-07-06 13:33:00,80.6,67.8,29.96,SSW,192,0.0,0.0,65,0.00,,CLR,0.00,VWS V14.01,2013-07-06 18:33:00,
2013-07-06 13:37:00,80.6,67.3,29.96,SSW,192,0.0,1.0,64,0.00,,CLR,0.00,VWS V14.01,2013-07-06 18:37:00,
2013-07-06 13:39:00,80.6,67.8,29.96,SSE,159,0.0,1.0,65,0.00,,CLR,0.00,VWS V14.01,2013-07-06 18:39:00,
2013-07-06 13:40:00,80.6,67.8,29.96,SSE,159,0.0,1.0,65,0.00,,CLR,0.00,VWS V14.01,2013-07-06 18:40:00,
2013-07-06 13:42:00,80.8,68.4,29.96,SSE,159,0.0,1.0,66,0.00,,CLR,0.00,VWS V14.01,2013-07-06 18:42:00,
2013-07-06 13:44:00,80.8,67.5,29.96,SSE,159,0.0,1.0,64,0.00,,CLR,0.00,VWS V14.01,2013-07-06 18:44:00,
2013-07-06 13:45:00,81.0,67.7,29.95,SSE,160,0.0,1.0,64,0.00,,CLR,0.00,VWS V14.01,2013-07-06 18:45:00,
2013-07-06 13:48:00,80.8,66.6,29.95,South,178,0.0,1.0,62,0.00,,CLR,0.00,VWS V14.01,2013-07-06 18:48:00,
2013-07-06 13:49:00,80.8,66.1,29.95,South,178,0.0,1.0,61,0.00,,CLR,0.00,VWS V14.01,2013-07-06 18:49:00,
2013-07-06 13:51:00,80.8,66.6,29.95,South,178,0.0,1.0,62,0.00,,CLR,0.00,VWS V14.01,2013-07-06 18:51:00,
2013-07-06 13:53:00,80.8,66.6,29.95,South,186,3.0,4.0,62,0.00,,CLR,0.00,VWS V14.01,2013-07-06 18:53:00,
2013-07-06 13:55:00,80.8,66.6,29.95,South,186,0.0,4.0,62,0.00,,CLR,0.00,VWS V14.01,2013-07-06 18:55:00,
2013-07-06 13:56:00,80.8,66.6,29.95,South,186,0.0,4.0,62,0.00,,CLR,0.00,VWS V14.01,2013-07-06 18:56:00,
2013-07-06 13:58:00,81.0,67.2,29.95,South,186,0.0,4.0,63,0.00,,CLR,0.00,VWS V14.01,2013-07-06 18:58:00,
2013-07-06 14:00:00,81.1,66.9,29.95,South,186,0.0,4.0,62,0.00,,CLR,0.00,VWS V14.01,2013-07-06 19:00:00,
2013-07-06 14:02:00,81.3,67.1,29.95,South,186,0.0,1.0,62,0.00,,CLR,0.00,VWS V14.01,2013-07-06 19:02:00,
2013-07-06 14:04:00,81.5,67.2,29.95,South,186,0.0,2.0,62,0.00,,CLR,0.00,VWS V14.01,2013-07-06 19:04:00,
2013-07-06 14:05:00,81.5,66.8,29.95,South,180,0.0,4.0,61,0.00,,CLR,0.00,VWS V14.01,2013-07-06 19:05:00,
2013-07-06 14:07:00,81.5,66.3,29.95,South,180,0.0,4.0,60,0.00,,CLR,0.00,VWS V14.01,2013-07-06 19:07:00,
2013-07-06 14:10:00,81.3,66.1,29.95,South,182,0.0,4.0,60,0.00,,CLR,0.00,VWS V14.01,2013-07-06 19:10:00,
2013-07-06 14:11:00,81.1,65.9,29.95,South,182,0.0,4.0,60,0.00,,CLR,0.00,VWS V14.01,2013-07-06 19:11:00,
2013-07-06 14:12:00,81.3,65.6,29.95,South,180,0.0,4.0,59,0.00,,CLR,0.00,VWS V14.01,2013-07-06 19:12:00,
2013-07-06 14:16:00,81.7,66.0,29.95,SE,141,0.0,4.0,59,0.00,,CLR,0.00,VWS V14.01,2013-07-06 19:16:00,
2013-07-06 14:19:00,81.9,66.2,29.95,SE,130,4.0,5.0,59,0.00,,CLR,0.00,VWS V14.01,2013-07-06 19:19:00,
2013-07-06 14:22:00,81.7,66.0,29.95,ESE,113,0.0,5.0,59,0.00,,CLR,0.00,VWS V14.01,2013-07-06 19:22:00,
2013-07-06 14:23:00,81.7,65.5,29.95,East,90,0.0,5.0,58,0.00,,CLR,0.00,VWS V14.01,2013-07-06 19:23:00,
2013-07-06 14:24:00,81.9,66.2,29.95,East,90,0.0,5.0,59,0.00,,CLR,0.00,VWS V14.01,2013-07-06 19:24:00,
2013-07-06 14:27:00,82.5,67.2,29.95,East,93,0.0,5.0,60,0.00,,CLR,0.00,VWS V14.01,2013-07-06 19:27:00,
2013-07-06 14:29:00,82.9,68.6,29.95,SSW,194,0.0,5.0,62,0.00,,CLR,0.00,VWS V14.01,2013-07-06 19:29:00,
2013-07-06 14:30:00,83.1,67.3,29.94,South,172,0.0,5.0,59,0.00,,,0.00,VWS V14.01,2013-07-06 19:30:00,
2013-07-06 14:33:00,82.9,67.1,29.94,SSW,209,0.0,5.0,59,0.00,,CLR,0.00,VWS V14.01,2013-07-06 19:33:00,
2013-07-06 14:34:00,82.9,67.1,29.94,East,101,0.0,5.0,59,0.00,,CLR,0.00,VWS V14.01,2013-07-06 19:34:00,
2013-07-06 14:36:00,82.7,67.4,29.94,SE,132,3.0,5.0,60,0.00,,CLR,0.00,VWS V14.01,2013-07-06 19:36:00,
2013-07-06 14:38:00,82.1,66.8,29.94,South,177,0.0,5.0,60,0.00,,CLR,0.00,VWS V14.01,2013-07-06 19:38:00,
2013-07-06 14:40:00,82.1,67.3,29.94,South,177,0.0,5.0,61,0.00,,CLR,0.00,VWS V14.01,2013-07-06 19:40:00,
2013-07-06 14:41:00,82.1,67.3,29.94,SSW,203,2.0,6.0,61,0.00,,CLR,0.00,VWS V14.01,2013-07-06 19:41:00,
2013-07-06 14:44:00,81.9,66.7,29.94,SSW,204,0.0,6.0,60,0.00,,CLR,0.00,VWS V14.01,2013-07-06 19:44:00,
2013-07-06 14:45:00,81.9,66.2,29.93,SSW,204,0.0,6.0,59,0.00,,CLR,0.00,VWS V14.01,2013-07-06 19:45:00,
2013-07-06 14:48:00,81.9,66.2,29.93,SSW,203,0.0,6.0,59,0.00,,SCT039,0.00,VWS V14.01,2013-07-06 19:48:00,
2013-07-06 14:49:00,82.3,67.5,29.93,SSW,193,0.0,6.0,61,0.00,,SCT039,0.00,VWS V14.01,2013-07-06 19:49:00,
2013-07-06 14:52:00,82.7,65.9,29.93,SSW,205,0.0,6.0,57,0.00,,SCT039,0.00,VWS V14.01,2013-07-06 19:52:00,
2013-07-06 14:56:00,82.9,65.1,29.93,SSE,159,4.0,6.0,55,0.00,,SCT039,0.00,VWS V14.01,2013-07-06 19:56:00,
2013-07-06 14:59:00,82.9,66.1,29.93,South,190,0.0,7.0,57,0.00,,SCT039,0.00,VWS V14.01,2013-07-06 19:59:00,
2013-07-06 15:00:00,83.1,65.3,29.93,South,187,0.0,7.0,55,0.00,,,0.00,VWS V14.01,2013-07-06 20:00:00,
2013-07-06 15:01:00,83.1,65.3,29.93,South,187,0.0,7.0,55,0.00,,SCT039,0.00,VWS V14.01,2013-07-06 20:01:00,
2013-07-06 15:04:00,82.9,64.6,29.93,South,191,0.0,5.0,54,0.00,,CLR,0.00,VWS V14.01,2013-07-06 20:04:00,
2013-07-06 15:06:00,82.9,65.1,29.93,South,188,0.0,5.0,55,0.00,,CLR,0.00,VWS V14.01,2013-07-06 20:06:00,
2013-07-06 15:07:00,82.9,65.1,29.93,East,95,0.0,5.0,55,0.00,,CLR,0.00,VWS V14.01,2013-07-06 20:07:00,
2013-07-06 15:09:00,82.9,65.6,29.93,ENE,76,0.0,5.0,56,0.00,,CLR,0.00,VWS V14.01,2013-07-06 20:09:00,
2013-07-06 15:12:00,82.7,65.4,29.93,South,190,0.0,5.0,56,0.00,,CLR,0.00,VWS V14.01,2013-07-06 20:12:00,
2013-07-06 15:14:00,82.7,65.9,29.93,SSW,210,4.0,6.0,57,0.00,,CLR,0.00,VWS V14.01,2013-07-06 20:14:00,
2013-07-06 15:20:00,82.5,64.2,29.93,SSW,200,1.0,6.0,54,0.00,,CLR,0.00,VWS V14.01,2013-07-06 20:20:00,
2013-07-06 15:21:00,82.5,64.2,29.93,SSW,200,0.0,6.0,54,0.00,,CLR,0.00,VWS V14.01,2013-07-06 20:21:00,
2013-07-06 15:26:00,83.1,66.8,29.93,ESE,123,0.0,6.0,58,0.00,,CLR,0.00,VWS V14.01,2013-07-06 20:26:00,
2013-07-06 15:27:00,83.1,66.8,29.93,ESE,123,0.0,6.0,58,0.00,,CLR,0.00,VWS V14.01,2013-07-06 20:27:00,
2013-07-06 15:30:00,83.3,66.0,29.93,East,81,0.0,6.0,56,0.00,,,0.00,VWS V14.01,2013-07-06 20:30:00,
2013-07-06 15:31:00,83.3,66.0,29.93,East,81,0.0,0.0,56,0.00,,CLR,0.00,VWS V14.01,2013-07-06 20:31:00,
2013-07-06 15:33:00,83.3,66.0,29.93,East,80,0.0,0.0,56,0.00,,CLR,0.00,VWS V14.01,2013-07-06 20:33:00,
2013-07-06 15:34:00,83.1,66.3,29.93,East,81,0.0,0.0,57,0.00,,CLR,0.00,VWS V14.01,2013-07-06 20:34:00,
2013-07-06 15:37:00,82.9,64.0,29.93,SSW,192,0.0,5.0,53,0.00,,CLR,0.00,VWS V14.01,2013-07-06 20:37:00,
2013-07-06 15:39:00,82.9,63.5,29.93,South,191,4.0,5.0,52,0.00,,CLR,0.00,VWS V14.01,2013-07-06 20:39:00,
2013-07-06 15:42:00,82.9,64.0,29.93,SSW,194,0.0,5.0,53,0.00,,CLR,0.00,VWS V14.01,2013-07-06 20:42:00,
2013-07-06 15:44:00,82.9,62.9,29.93,SSW,194,0.0,5.0,51,0.00,,CLR,0.00,VWS V14.01,2013-07-06 20:44:00,
2013-07-06 15:45:00,82.9,62.9,29.93,East,87,2.0,5.0,51,0.00,,CLR,0.00,VWS V14.01,2013-07-06 20:45:00,
2013-07-06 15:48:00,83.1,62.5,29.93,East,84,0.0,5.0,50,0.00,,CLR,0.00,VWS V14.01,2013-07-06 20:48:00,
2013-07-06 15:50:00,83.3,64.4,29.93,SE,141,0.0,5.0,53,0.00,,CLR,0.00,VWS V14.01,2013-07-06 20:50:00,
2013-07-06 15:53:00,83.3,64.9,29.93,ESE,123,0.0,5.0,54,0.00,,CLR,0.00,VWS V14.01,2013-07-06 20:53:00,
2013-07-06 15:55:00,83.3,66.0,29.93,ESE,111,0.0,6.0,56,0.00,,CLR,0.00,VWS V14.01,2013-07-06 20:55:00,
2013-07-06 15:58:00,83.5,66.2,29.93,East,96,2.0,6.0,56,0.00,,CLR,0.00,VWS V14.01,2013-07-06 20:58:00,
2013-07-06 16:00:00,83.5,66.2,29.92,ESE,107,4.0,9.0,56,0.00,,,0.00,VWS V14.01,2013-07-06 21:00:00,
2013-07-06 16:01:00,83.5,65.7,29.92,SE,146,1.0,5.0,55,0.00,,CLR,0.00,VWS V14.01,2013-07-06 21:01:00,
2013-07-06 16:02:00,83.5,65.7,29.92,East,94,1.0,5.0,55,0.00,,CLR,0.00,VWS V14.01,2013-07-06 21:02:00,
2013-07-06 16:04:00,83.3,64.9,29.92,South,176,0.0,5.0,54,0.00,,CLR,0.00,VWS V14.01,2013-07-06 21:04:00,
2013-07-06 16:06:00,83.1,64.8,29.92,SE,144,0.0,5.0,54,0.00,,CLR,0.00,VWS V14.01,2013-07-06 21:06:00,
2013-07-06 16:09:00,83.3,66.0,29.92,South,187,2.0,5.0,56,0.00,,CLR,0.00,VWS V14.01,2013-07-06 21:09:00,
2013-07-06 16:10:00,83.1,64.8,29.92,SSW,196,0.0,7.0,54,0.00,,CLR,0.00,VWS V14.01,2013-07-06 21:10:00,
2013-07-06 16:13:00,83.1,66.3,29.92,SE,128,0.0,7.0,57,0.00,,CLR,0.00,VWS V14.01,2013-07-06 21:13:00,
2013-07-06 16:15:00,83.3,66.0,29.92,SE,128,0.0,7.0,56,0.00,,CLR,0.00,VWS V14.01,2013-07-06 21:15:00,
2013-07-06 16:16:00,83.3,65.5,29.92,SW,215,0.0,7.0,55,0.00,,CLR,0.00,VWS V14.01,2013-07-06 21:16:00,
2013-07-06 16:19:00,83.5,65.1,29.92,ESE,119,0.0,7.0,54,0.00,,CLR,0.00,VWS V14.01,2013-07-06 21:19:00,
2013-07-06 16:20:00,83.7,65.3,29.92,ESE,111,0.0,7.0,54,0.00,,CLR,0.00,VWS V14.01,2013-07-06 21:20:00,
2013-07-06 16:21:00,83.7,64.2,29.92,East,92,0.0,7.0,52,0.00,,CLR,0.00,VWS V14.01,2013-07-06 21:21:00,
2013-07-06 16:25:00,83.5,64.6,29.92,East,95,0.0,7.0,53,0.00,,CLR,0.00,VWS V14.01,2013-07-06 21:25:00,
2013-07-06 16:26:00,83.5,65.1,29.92,East,95,0.0,7.0,54,0.00,,CLR,0.00,VWS V14.01,2013-07-06 21:26:00,
2013-07-06 16:29:00,83.5,65.1,29.92,SE,138,0.0,7.0,54,0.00,,CLR,0.00,VWS V14.01,2013-07-06 21:29:00,
2013-07-06 16:30:00,83.5,65.1,29.92,SE,138,0.0,7.0,54,0.00,,,0.00,VWS V14.01,2013-07-06 21:30:00,
2013-07-06 16:31:00,83.5,64.6,29.92,SE,138,0.0,0.0,53,0.00,,CLR,0.00,VWS V14.01,2013-07-06 21:31:00,
2013-07-06 16:35:00,83.3,62.7,29.92,South,190,1.0,4.0,50,0.00,,CLR,0.00,VWS V14.01,2013-07-06 21:35:00,
2013-07-06 16:36:00,83.3,62.7,29.92,South,190,0.0,4.0,50,0.00,,CLR,0.00,VWS V14.01,2013-07-06 21:36:00,
2013-07-06 16:37:00,83.3,62.7,29.92,South,190,0.0,4.0,50,0.00,,CLR,0.00,VWS V14.01,2013-07-06 21:37:00,
2013-07-06 16:41:00,83.3,63.3,29.92,South,190,0.0,4.0,51,0.00,,CLR,0.00,VWS V14.01,2013-07-06 21:41:00,
2013-07-06 16:42:00,83.7,64.2,29.92,South,190,0.0,4.0,52,0.00,,CLR,0.00,VWS V14.01,2013-07-06 21:42:00,
2013-07-06 16:47:00,84.0,64.5,29.92,South,190,0.0,4.0,52,0.00,,CLR,0.00,VWS V14.01,2013-07-06 21:47:00,
2013-07-06 16:52:00,84.0,65.1,29.92,SSW,197,3.0,4.0,53,0.00,,CLR,0.00,VWS V14.01,2013-07-06 21:52:00,
2013-07-06 16:53:00,83.9,64.9,29.92,SSW,197,0.0,4.0,53,0.00,,CLR,0.00,VWS V14.01,2013-07-06 21:53:00,
2013-07-06 16:57:00,83.9,64.9,29.92,SSW,197,0.0,4.0,53,0.00,,CLR,0.00,VWS V14.01,2013-07-06 21:57:00,
2013-07-06 16:58:00,84.0,65.1,29.92,SSW,197,0.0,4.0,53,0.00,,CLR,0.00,VWS V14.01,2013-07-06 21:58:00,
2013-07-06 17:00:00,84.2,64.1,29.91,SSW,200,0.0,4.0,51,0.00,,,0.00,VWS V14.01,2013-07-06 22:00:00,
2013-07-06 17:03:00,84.4,65.4,29.91,SSW,200,0.0,0.0,53,0.00,,CLR,0.00,VWS V14.01,2013-07-06 22:03:00,
2013-07-06 17:08:00,84.6,65.1,29.91,SE,125,0.0,1.0,52,0.00,,CLR,0.00,VWS V14.01,2013-07-06 22:08:00,
2013-07-06 17:09:00,84.4,65.9,29.91,SE,126,0.0,1.0,54,0.00,,CLR,0.00,VWS V14.01,2013-07-06 22:09:00,
2013-07-06 17:14:00,84.0,64.5,29.91,SSE,152,0.0,1.0,52,0.00,,CLR,0.00,VWS V14.01,2013-07-06 22:14:00,
2013-07-06 17:15:00,84.0,64.5,29.91,SSE,152,0.0,1.0,52,0.00,,CLR,0.00,VWS V14.01,2013-07-06 22:15:00,
2013-07-06 17:19:00,83.7,65.3,29.92,SSE,152,0.0,2.0,54,0.00,,CLR,0.00,VWS V14.01,2013-07-06 22:19:00,
2013-07-06 17:21:00,83.7,64.2,29.92,SSE,152,0.0,2.0,52,0.00,,CLR,0.00,VWS V14.01,2013-07-06 22:21:00,
2013-07-06 17:25:00,83.5,65.1,29.92,South,190,0.0,4.0,54,0.00,,CLR,0.00,VWS V14.01,2013-07-06 22:25:00,
2013-07-06 17:27:00,83.5,64.6,29.92,SE,133,0.0,4.0,53,0.00,,CLR,0.00,VWS V14.01,2013-07-06 22:27:00,
2013-07-06 17:29:00,83.5,65.1,29.92,South,170,1.0,4.0,54,0.00,,CLR,0.00,VWS V14.01,2013-07-06 22:29:00,
2013-07-06 17:30:00,83.5,65.1,29.91,South,184,0.0,6.0,54,0.00,,,0.00,VWS V14.01,2013-07-06 22:30:00,
2013-07-06 17:31:00,83.5,65.1,29.91,South,184,0.0,0.0,54,0.00,,CLR,0.00,VWS V14.01,2013-07-06 22:31:00,
2013-07-06 17:32:00,83.5,65.1,29.91,South,184,0.0,0.0,54,0.00,,CLR,0.00,VWS V14.01,2013-07-06 22:32:00,
2013-07-06 17:35:00,83.5,65.7,29.91,South,186,4.0,4.0,55,0.00,,CLR,0.00,VWS V14.01,2013-07-06 22:35:00,
2013-07-06 17:36:00,83.3,64.4,29.91,South,186,0.0,4.0,53,0.00,,CLR,0.00,VWS V14.01,2013-07-06 22:36:00,
2013-07-06 17:37:00,83.3,64.4,29.91,South,186,0.0,4.0,53,0.00,,CLR,0.00,VWS V14.01,2013-07-06 22:37:00,
2013-07-06 17:40:00,83.1,64.2,29.91,SSW,193,4.0,6.0,53,0.00,,CLR,0.00,VWS V14.01,2013-07-06 22:40:00,
2013-07-06 17:43:00,82.7,63.8,29.91,South,190,0.0,6.0,53,0.00,,CLR,0.00,VWS V14.01,2013-07-06 22:43:00,
2013-07-06 17:45:00,82.7,64.4,29.90,SE,127,3.0,6.0,54,0.00,,CLR,0.00,VWS V14.01,2013-07-06 22:45:00,
2013-07-06 17:48:00,82.9,65.1,29.90,SSE,157,0.0,6.0,55,0.00,,SCT048,0.00,VWS V14.01,2013-07-06 22:48:00,
2013-07-06 17:52:00,82.9,64.0,29.90,East,97,0.0,6.0,53,0.00,,SCT048,0.00,VWS V14.01,2013-07-06 22:52:00,
2013-07-06 17:54:00,82.9,64.0,29.90,South,173,0.0,6.0,53,0.00,,SCT048,0.00,VWS V14.01,2013-07-06 22:54:00,
2013-07-06 17:55:00,82.9,64.0,29.90,South,173,0.0,6.0,53,0.00,,SCT048,0.00,VWS V14.01,2013-07-06 22:55:00,
2013-07-06 17:57:00,82.9,65.1,29.90,South,173,0.0,6.0,55,0.00,,SCT048,0.00,VWS V14.01,2013-07-06 22:57:00,
2013-07-06 17:59:00,82.9,65.1,29.90,South,173,0.0,6.0,55,0.00,,SCT048,0.00,VWS V14.01,2013-07-06 22:59:00,
2013-07-06 18:00:00,82.9,65.6,29.90,South,173,0.0,6.0,56,0.00,,,0.00,VWS V14.01,2013-07-06 23:00:00,
2013-07-06 18:02:00,82.9,66.1,29.90,South,173,0.0,0.0,57,0.00,,CLR,0.00,VWS V14.01,2013-07-06 23:02:00,
2013-07-06 18:05:00,82.9,64.0,29.90,SE,135,0.0,1.0,53,0.00,,CLR,0.00,VWS V14.01,2013-07-06 23:05:00,
2013-07-06 18:08:00,82.9,64.0,29.90,SE,134,0.0,1.0,53,0.00,,CLR,0.00,VWS V14.01,2013-07-06 23:08:00,
2013-07-06 18:10:00,82.9,65.1,29.90,SE,126,0.0,1.0,55,0.00,,CLR,0.00,VWS V14.01,2013-07-06 23:10:00,
2013-07-06 18:15:00,82.9,64.6,29.91,SE,134,0.0,2.0,54,0.00,,CLR,0.00,VWS V14.01,2013-07-06 23:15:00,
2013-07-06 18:16:00,82.7,64.4,29.91,SSE,161,4.0,4.0,54,0.00,,CLR,0.00,VWS V14.01,2013-07-06 23:16:00,
2013-07-06 18:20:00,82.7,64.9,29.91,South,170,0.0,4.0,55,0.00,,CLR,0.00,VWS V14.01,2013-07-06 23:20:00,
2013-07-06 18:22:00,82.5,65.2,29.91,South,170,0.0,4.0,56,0.00,,CLR,0.00,VWS V14.01,2013-07-06 23:22:00,
2013-07-06 18:27:00,82.5,65.8,29.91,ESE,120,0.0,5.0,57,0.00,,CLR,0.00,VWS V14.01,2013-07-06 23:27:00,
2013-07-06 18:28:00,82.5,65.8,29.91,East,96,0.0,5.0,57,0.00,,CLR,0.00,VWS V14.01,2013-07-06 23:28:00,
2013-07-06 18:30:00,82.3,65.1,29.92,SSE,155,0.0,5.0,56,0.00,,,0.00,VWS V14.01,2013-07-06 23:30:00,
2013-07-06 18:32:00,82.3,65.1,29.92,SE,142,0.0,0.0,56,0.00,,CLR,0.00,VWS V14.01,2013-07-06 23:32:00,
2013-07-06 18:33:00,82.3,65.6,29.92,SE,132,0.0,0.0,57,0.00,,CLR,0.00,VWS V14.01,2013-07-06 23:33:00,
2013-07-06 18:34:00,82.3,65.6,29.92,SE,132,0.0,0.0,57,0.00,,CLR,0.00,VWS V14.01,2013-07-06 23:34:00,
2013-07-06 18:37:00,82.1,65.9,29.92,SE,142,0.0,0.0,58,0.00,,CLR,0.00,VWS V14.01,2013-07-06 23:37:00,
2013-07-06 18:39:00,82.1,65.9,29.92,SE,142,0.0,0.0,58,0.00,,CLR,0.00,VWS V14.01,2013-07-06 23:39:00,
2013-07-06 18:42:00,81.7,65.5,29.92,SSE,150,0.0,1.0,58,0.00,,CLR,0.00,VWS V14.01,2013-07-06 23:42:00,
2013-07-06 18:44:00,81.7,66.0,29.92,SE,138,1.0,1.0,59,0.00,,CLR,0.00,VWS V14.01,2013-07-06 23:44:00,
2013-07-06 18:48:00,81.5,66.3,29.92,ESE,122,0.0,2.0,60,0.00,,CLR,0.00,VWS V14.01,2013-07-06 23:48:00,
2013-07-06 18:50:00,81.3,66.1,29.92,ESE,122,0.0,2.0,60,0.00,,CLR,0.00,VWS V14.01,2013-07-06 23:50:00,
2013-07-06 18:53:00,81.1,65.9,29.92,ESE,122,0.0,2.0,60,0.00,,CLR,0.00,VWS V14.01,2013-07-06 23:53:00,
2013-07-06 18:56:00,81.1,66.4,29.92,ESE,122,0.0,2.0,61,0.00,,CLR,0.00,VWS V14.01,2013-07-06 23:56:00,
2013-07-06 18:59:00,81.0,66.3,29.92,ESE,122,0.0,2.0,61,0.00,,CLR,0.00,VWS V14.01,2013-07-06 23:59:00,
2013-07-06 19:00:00,81.0,66.3,29.91,ESE,123,0.0,2.0,61,0.00,,,0.00,VWS V14.01,2013-07-07 00:00:00,
2013-07-06 19:02:00,80.8,66.1,29.91,ESE,123,0.0,0.0,61,0.00,,CLR,0.00,VWS V14.01,2013-07-07 00:02:00,
2013-07-06 19:04:00,80.8,66.6,29.91,ESE,123,0.0,1.0,62,0.00,,CLR,0.00,VWS V14.01,2013-07-07 00:04:00,
2013-07-06 19:07:00,80.8,66.6,29.91,ESE,123,0.0,1.0,62,0.00,,CLR,0.00,VWS V14.01,2013-07-07 00:07:00,
2013-07-06 19:08:00,80.8,66.6,29.91,ESE,123,0.0,1.0,62,0.00,,CLR,0.00,VWS V14.01,2013-07-07 00:08:00,
2013-07-06 19:10:00,80.8,66.6,29.91,ESE,123,0.0,1.0,62,0.00,,CLR,0.00,VWS V14.01,2013-07-07 00:10:00,
2013-07-06 19:15:00,80.6,66.4,29.90,ESE,123,0.0,1.0,62,0.00,,CLR,0.00,VWS V14.01,2013-07-07 00:15:00,
2013-07-06 19:16:00,80.6,66.4,29.90,East,84,4.0,4.0,62,0.00,,CLR,0.00,VWS V14.01,2013-07-07 00:16:00,
2013-07-06 19:20:00,80.4,67.1,29.90,East,84,0.0,4.0,64,0.00,,CLR,0.00,VWS V14.01,2013-07-07 00:20:00,
2013-07-06 19:21:00,80.2,66.9,29.90,East,83,0.0,4.0,64,0.00,,CLR,0.00,VWS V14.01,2013-07-07 00:21:00,
2013-07-06 19:25:00,80.0,67.2,29.90,East,89,0.0,4.0,65,0.00,,CLR,0.00,VWS V14.01,2013-07-07 00:25:00,
2013-07-06 19:27:00,79.8,67.4,29.90,East,89,0.0,4.0,66,0.00,,CLR,0.00,VWS V14.01,2013-07-07 00:27:00,
2013-07-06 19:30:00,79.7,67.8,29.90,East,89,0.0,4.0,67,0.00,,,0.00,VWS V14.01,2013-07-07 00:30:00,
2013-07-06 19:31:00,79.7,67.8,29.90,East,89,0.0,0.0,67,0.00,,CLR,0.00,VWS V14.01,2013-07-07 00:31:00,
2013-07-06 19:32:00,79.7,67.8,29.90,East,89,0.0,0.0,67,0.00,,CLR,0.00,VWS V14.01,2013-07-07 00:32:00,
2013-07-06 19:36:00,79.3,67.8,29.90,East,89,0.0,0.0,68,0.00,,CLR,0.00,VWS V14.01,2013-07-07 00:36:00,
2013-07-06 19:37:00,79.3,68.3,29.90,East,89,0.0,0.0,69,0.00,,CLR,0.00,VWS V14.01,2013-07-07 00:37:00,
2013-07-06 19:38:00,79.3,68.3,29.90,East,89,0.0,0.0,69,0.00,,CLR,0.00,VWS V14.01,2013-07-07 00:38:00,
2013-07-06 19:42:00,78.9,68.3,29.90,East,89,0.0,1.0,70,0.00,,CLR,0.00,VWS V14.01,2013-07-07 00:42:00,
2013-07-06 19:43:00,78.9,68.3,29.90,East,89,0.0,1.0,70,0.00,,CLR,0.00,VWS V14.01,2013-07-07 00:43:00,
2013-07-06 19:48:00,78.7,68.5,29.92,SE,125,0.0,3.0,71,0.00,,CLR,0.00,VWS V14.01,2013-07-07 00:48:00,
2013-07-06 19:53:00,78.4,69.0,29.92,SE,125,0.0,4.0,73,0.00,,CLR,0.00,VWS V14.01,2013-07-07 00:53:00,
2013-07-06 19:55:00,78.4,69.0,29.92,SE,125,0.0,4.0,73,0.00,,CLR,0.00,VWS V14.01,2013-07-07 00:55:00,
2013-07-06 19:58:00,78.2,69.2,29.92,SE,125,0.0,4.0,74,0.00,,CLR,0.00,VWS V14.01,2013-07-07 00:58:00,
2013-07-06 19:59:00,78.2,69.2,29.92,SE,125,0.0,4.0,74,0.00,,CLR,0.00,VWS V14.01,2013-07-07 00:59:00,
2013-07-06 20:00:00,78.0,69.1,29.93,SE,125,0.0,4.0,74,0.00,,,0.00,VWS V14.01,2013-07-07 01:00:00,
2013-07-06 20:01:00,78.0,69.1,29.93,ESE,120,0.0,0.0,74,0.00,,CLR,0.00,VWS V14.01,2013-07-07 01:01:00,
2013-07-06 20:04:00,77.8,69.2,29.93,SE,138,2.0,6.0,75,0.00,,CLR,0.00,VWS V14.01,2013-07-07 01:04:00,
2013-07-06 20:06:00,77.6,68.7,29.93,ESE,103,4.0,6.0,74,0.00,,CLR,0.00,VWS V14.01,2013-07-07 01:06:00,
2013-07-06 20:09:00,77.3,68.4,29.93,SE,124,1.0,7.0,74,0.00,,CLR,0.00,VWS V14.01,2013-07-07 01:09:00,
2013-07-06 20:10:00,77.3,68.4,29.93,SE,125,0.0,7.0,74,0.00,,CLR,0.00,VWS V14.01,2013-07-07 01:10:00,
2013-07-06 20:12:00,77.1,68.2,29.93,South,178,3.0,7.0,74,0.00,,CLR,0.00,VWS V14.01,2013-07-07 01:12:00,
2013-07-06 20:14:00,76.9,68.0,29.93,South,184,1.0,7.0,74,0.00,,CLR,0.00,VWS V14.01,2013-07-07 01:14:00,
2013-07-06 20:15:00,76.9,68.0,29.94,SSW,194,5.0,7.0,74,0.00,,CLR,0.00,VWS V14.01,2013-07-07 01:15:00,
2013-07-06 20:17:00,76.7,67.4,29.94,SSE,161,0.0,7.0,73,0.00,,CLR,0.00,VWS V14.01,2013-07-07 01:17:00,
2013-07-06 20:20:00,76.6,67.3,29.94,SSE,155,1.0,7.0,73,0.00,,CLR,0.00,VWS V14.01,2013-07-07 01:20:00,
2013-07-06 20:24:00,76.2,66.1,29.94,SE,134,0.0,7.0,71,0.00,,CLR,0.00,VWS V14.01,2013-07-07 01:24:00,
2013-07-06 20:25:00,76.0,65.9,29.94,SE,132,0.0,7.0,71,0.00,,CLR,0.00,VWS V14.01,2013-07-07 01:25:00,
2013-07-06 20:28:00,75.7,64.8,29.94,SSE,165,3.0,8.0,69,0.00,,CLR,0.00,VWS V14.01,2013-07-07 01:28:00,
2013-07-06 20:29:00,75.7,64.8,29.94,SSW,209,5.0,8.0,69,0.00,,CLR,0.00,VWS V14.01,2013-07-07 01:29:00,
2013-07-06 20:30:00,75.5,65.0,29.95,South,190,4.0,11.0,70,0.00,,,0.00,VWS V14.01,2013-07-07 01:30:00,
2013-07-06 20:31:00,75.5,64.6,29.95,South,172,3.0,6.0,69,0.00,,CLR,0.00,VWS V14.01,2013-07-07 01:31:00,
2013-07-06 20:35:00,75.3,64.8,29.95,South,189,0.0,6.0,70,0.00,,CLR,0.00,VWS V14.01,2013-07-07 01:35:00,
2013-07-06 20:37:00,75.3,64.8,29.95,South,175,4.0,7.0,70,0.00,,CLR,0.00,VWS V14.01,2013-07-07 01:37:00,
2013-07-06 20:41:00,75.2,65.2,29.95,South,180,4.0,7.0,71,0.00,,CLR,0.00,VWS V14.01,2013-07-07 01:41:00,
2013-07-06 20:42:00,75.0,65.0,29.95,East,99,2.0,7.0,71,0.00,,CLR,0.00,VWS V14.01,2013-07-07 01:42:00,
2013-07-06 20:47:00,74.8,64.0,29.95,SSW,200,4.0,11.0,69,0.00,,CLR,0.00,VWS V14.01,2013-07-07 01:47:00,
2013-07-06 20:51:00,74.6,62.5,29.95,SSW,195,6.0,11.0,66,0.00,,CLR,0.00,VWS V14.01,2013-07-07 01:51:00,
2013-07-06 20:52:00,74.5,62.4,29.95,SSW,205,11.0,11.0,66,0.00,,CLR,0.00,VWS V14.01,2013-07-07 01:52:00,
2013-07-06 20:53:00,74.5,60.2,29.95,SSW,206,6.0,13.0,61,0.00,,CLR,0.00,VWS V14.01,2013-07-07 01:53:00,
2013-07-06 20:57:00,74.3,59.5,29.95,South,185,5.0,13.0,60,0.00,,CLR,0.00,VWS V14.01,2013-07-07 01:57:00,
2013-07-06 20:59:00,74.1,59.3,29.95,SSW,202,3.0,13.0,60,0.00,,CLR,0.00,VWS V14.01,2013-07-07 01:59:00,
2013-07-06 21:00:00,74.1,59.3,29.95,South,188,2.0,13.0,60,0.00,,,0.00,VWS V14.01,2013-07-07 02:00:00,
2013-07-06 21:02:00,73.9,59.2,29.95,South,184,2.0,6.0,60,0.00,,SCT047,0.00,VWS V14.01,2013-07-07 02:02:00,
2013-07-06 21:06:00,73.8,59.5,29.95,South,183,2.0,6.0,61,0.00,,SCT047,0.00,VWS V14.01,2013-07-07 02:06:00,
2013-07-06 21:08:00,73.6,59.3,29.95,SSW,196,0.0,6.0,61,0.00,,SCT047,0.00,VWS V14.01,2013-07-07 02:08:00,
2013-07-06 21:11:00,73.4,59.2,29.95,SSW,196,0.0,6.0,61,0.00,,SCT047,0.00,VWS V14.01,2013-07-07 02:11:00,
2013-07-06 21:14:00,73.1,58.9,29.95,South,185,3.0,6.0,61,0.00,,SCT047,0.00,VWS V14.01,2013-07-07 02:14:00,
2013-07-06 21:16:00,72.9,58.7,29.95,South,190,0.0,6.0,61,0.00,,SCT047,0.00,VWS V14.01,2013-07-07 02:16:00,
2013-07-06 21:21:00,72.7,58.9,29.95,SSW,194,0.0,6.0,62,0.00,,SCT047,0.00,VWS V14.01,2013-07-07 02:21:00,
2013-07-06 21:22:00,72.7,58.9,29.95,SSW,192,0.0,6.0,62,0.00,,SCT047,0.00,VWS V14.01,2013-07-07 02:22:00,
2013-07-06 21:26:00,72.4,58.7,29.95,South,190,0.0,6.0,62,0.00,,SCT047,0.00,VWS V14.01,2013-07-07 02:26:00,
2013-07-06 21:27:00,72.4,58.7,29.95,South,190,0.0,6.0,62,0.00,,SCT047,0.00,VWS V14.01,2013-07-07 02:27:00,
2013-07-06 21:29:00,72.2,58.9,29.95,South,188,0.0,6.0,63,0.00,,SCT047,0.00,VWS V14.01,2013-07-07 02:29:00,
2013-07-06 21:30:00,72.2,58.9,29.95,South,188,2.0,6.0,63,0.00,,,0.00,VWS V14.01,2013-07-07 02:30:00,
2013-07-06 21:32:00,72.0,58.7,29.95,South,188,0.0,2.0,63,0.00,,SCT047,0.00,VWS V14.01,2013-07-07 02:32:00,
2013-07-06 21:35:00,71.9,59.1,29.95,SSE,159,0.0,2.0,64,0.00,,SCT047,0.00,VWS V14.01,2013-07-07 02:35:00,
2013-07-06 21:37:00,71.9,59.1,29.95,SSE,159,0.0,2.0,64,0.00,,SCT047,0.00,VWS V14.01,2013-07-07 02:37:00,
2013-07-06 21:39:00,71.7,59.3,29.95,SSE,159,0.0,2.0,65,0.00,,SCT047,0.00,VWS V14.01,2013-07-07 02:39:00,
2013-07-06 21:42:00,71.5,59.1,29.95,SSE,159,0.0,2.0,65,0.00,,SCT047,0.00,VWS V14.01,2013-07-07 02:42:00,
2013-07-06 21:43:00,71.5,59.1,29.95,SSE,159,0.0,2.0,65,0.00,,SCT047,0.00,VWS V14.01,2013-07-07 02:43:00,
2013-07-06 21:47:00,71.4,59.5,29.95,SSE,159,0.0,2.0,66,0.00,,CLR,0.00,VWS V14.01,2013-07-07 02:47:00,
2013-07-06 21:49:00,71.4,59.5,29.95,SE,139,0.0,2.0,66,0.00,,CLR,0.00,VWS V14.01,2013-07-07 02:49:00,
2013-07-06 21:52:00,71.2,59.3,29.95,SE,138,0.0,2.0,66,0.00,,CLR,0.00,VWS V14.01,2013-07-07 02:52:00,
2013-07-06 21:54:00,71.0,59.5,29.95,East,92,1.0,3.0,67,0.00,,CLR,0.00,VWS V14.01,2013-07-07 02:54:00,
2013-07-06 21:55:00,70.8,59.7,29.95,East,92,0.0,3.0,68,0.00,,CLR,0.00,VWS V14.01,2013-07-07 02:55:00,
2013-07-06 21:57:00,70.8,59.7,29.95,East,92,0.0,3.0,68,0.00,,CLR,0.00,VWS V14.01,2013-07-07 02:57:00,
2013-07-06 21:59:00,70.7,59.6,29.95,ESE,116,0.0,3.0,68,0.00,,CLR,0.00,VWS V14.01,2013-07-07 02:59:00,
2013-07-06 22:00:00,70.7,59.6,29.95,ESE,118,1.0,4.0,68,0.00,,CLR,0.00,VWS V14.01,2013-07-07 03:00:00,
2013-07-06 22:03:00,70.3,59.7,29.95,SSE,155,0.0,1.0,69,0.00,,CLR,0.00,VWS V14.01,2013-07-07 03:03:00,
2013-07-06 22:04:00,70.3,59.7,29.95,SSE,155,0.0,1.0,69,0.00,,CLR,0.00,VWS V14.01,2013-07-07 03:04:00,
2013-07-06 22:06:00,70.2,59.6,29.95,SE,141,0.0,1.0,69,0.00,,CLR,0.00,VWS V14.01,2013-07-07 03:06:00,
2013-07-06 22:10:00,70.0,59.4,29.95,SSW,194,0.0,1.0,69,0.00,,CLR,0.00,VWS V14.01,2013-07-07 03:10:00,
2013-07-06 22:11:00,70.0,59.4,29.95,SSW,192,2.0,5.0,69,0.00,,CLR,0.00,VWS V14.01,2013-07-07 03:11:00,
2013-07-06 22:15:00,70.0,59.4,29.97,SSE,153,0.0,5.0,69,0.00,,CLR,0.00,VWS V14.01,2013-07-07 03:15:00,
2013-07-06 22:16:00,70.0,59.4,29.97,SSE,157,0.0,5.0,69,0.00,,SCT060,0.00,VWS V14.01,2013-07-07 03:16:00,
2013-07-06 22:21:00,69.8,59.6,29.97,SSE,151,0.0,5.0,70,0.00,,SCT060,0.00,VWS V14.01,2013-07-07 03:21:00,
2013-07-06 22:26:00,69.7,59.9,29.97,SE,136,0.0,5.0,71,0.00,,SCT060,0.00,VWS V14.01,2013-07-07 03:26:00,
2013-07-06 22:27:00,69.7,59.9,29.97,SSE,148,2.0,6.0,71,0.00,,SCT060,0.00,VWS V14.01,2013-07-07 03:27:00,
2013-07-06 22:30:00,69.5,59.7,29.97,SE,124,0.0,6.0,71,0.00,,,0.00,VWS V14.01,2013-07-07 03:30:00,
2013-07-06 22:31:00,69.5,59.7,29.97,SE,137,4.0,7.0,71,0.00,,CLR,0.00,VWS V14.01,2013-07-07 03:31:00,
2013-07-06 22:33:00,69.5,60.1,29.97,SE,137,0.0,7.0,72,0.00,,CLR,0.00,VWS V14.01,2013-07-07 03:33:00,
2013-07-06 22:36:00,69.5,60.1,29.97,South,170,0.0,7.0,72,0.00,,CLR,0.00,VWS V14.01,2013-07-07 03:36:00,
2013-07-06 22:38:00,69.5,60.1,29.97,SSE,164,3.0,7.0,72,0.00,,CLR,0.00,VWS V14.01,2013-07-07 03:38:00,
2013-07-06 22:43:00,69.3,59.9,29.97,South,186,0.0,7.0,72,0.00,,CLR,0.00,VWS V14.01,2013-07-07 03:43:00,
2013-07-06 22:48:00,69.2,60.2,29.97,SSE,168,0.0,7.0,73,0.00,,CLR,0.00,VWS V14.01,2013-07-07 03:48:00,
2013-07-06 22:49:00,69.2,60.2,29.97,SSE,168,0.0,7.0,73,0.00,,CLR,0.00,VWS V14.01,2013-07-07 03:49:00,
2013-07-06 22:53:00,69.0,60.4,29.97,ESE,115,2.0,7.0,74,0.00,,CLR,0.00,VWS V14.01,2013-07-07 03:53:00,
2013-07-06 22:54:00,69.0,60.4,29.97,SSE,148,0.0,7.0,74,0.00,,CLR,0.00,VWS V14.01,2013-07-07 03:54:00,
2013-07-06 22:55:00,69.0,60.4,29.97,SSE,148,0.0,7.0,74,0.00,,CLR,0.00,VWS V14.01,2013-07-07 03:55:00,
2013-07-06 23:00:00,69.0,60.4,29.97,South,175,2.0,8.0,74,0.00,,CLR,0.00,VWS V14.01,2013-07-07 04:00:00,
2013-07-06 23:01:00,69.0,60.4,29.97,South,172,0.0,8.0,74,0.00,,CLR,0.00,VWS V14.01,2013-07-07 04:01:00,
2013-07-06 23:06:00,68.8,60.9,29.97,SSE,164,0.0,3.0,76,0.00,,CLR,0.00,VWS V14.01,2013-07-07 04:06:00,
2013-07-06 23:11:00,68.8,61.3,29.97,SSW,197,2.0,5.0,77,0.00,,CLR,0.00,VWS V14.01,2013-07-07 04:11:00,
2013-07-06 23:16:00,68.8,61.7,29.97,East,80,0.0,5.0,78,0.00,,CLR,0.00,VWS V14.01,2013-07-07 04:16:00,
2013-07-06 23:17:00,68.8,61.7,29.97,SSE,159,4.0,5.0,78,0.00,,CLR,0.00,VWS V14.01,2013-07-07 04:17:00,
2013-07-06 23:21:00,68.7,61.6,29.97,SSE,160,0.0,5.0,78,0.00,,CLR,0.00,VWS V14.01,2013-07-07 04:21:00,
2013-07-06 23:22:00,68.7,61.6,29.97,SSE,160,0.0,5.0,78,0.00,,CLR,0.00,VWS V14.01,2013-07-07 04:22:00,
2013-07-06 23:26:00,68.8,62.0,29.97,SSW,204,0.0,6.0,79,0.00,,CLR,0.00,VWS V14.01,2013-07-07 04:26:00,
2013-07-06 23:27:00,68.8,62.0,29.97,SSW,204,0.0,6.0,79,0.00,,CLR,0.00,VWS V14.01,2013-07-07 04:27:00,
2013-07-06 23:30:00,68.8,62.0,29.97,SSW,194,0.0,6.0,79,0.00,,,0.00,VWS V14.01,2013-07-07 04:30:00,
2013-07-06 23:31:00,68.8,62.0,29.97,SSW,194,0.0,0.0,79,0.00,,CLR,0.00,VWS V14.01,2013-07-07 04:31:00,
2013-07-06 23:32:00,68.8,62.0,29.97,SSW,194,0.0,0.0,79,0.00,,CLR,0.00,VWS V14.01,2013-07-07 04:32:00,
2013-07-06 23:36:00,68.8,62.0,29.97,SSW,194,0.0,0.0,79,0.00,,CLR,0.00,VWS V14.01,2013-07-07 04:36:00,
2013-07-06 23:37:00,68.8,62.0,29.97,SSW,194,0.0,0.0,79,0.00,,CLR,0.00,VWS V14.01,2013-07-07 04:37:00,
2013-07-06 23:38:00,68.8,62.0,29.97,SSW,194,0.0,0.0,79,0.00,,CLR,0.00,VWS V14.01,2013-07-07 04:38:00,
2013-07-06 23:41:00,68.7,61.9,29.97,SSW,194,0.0,0.0,79,0.00,,CLR,0.00,VWS V14.01,2013-07-07 04:41:00,
2013-07-06 23:42:00,68.7,61.9,29.97,SSW,194,0.0,0.0,79,0.00,,CLR,0.00,VWS V14.01,2013-07-07 04:42:00,
2013-07-06 23:43:00,68.7,61.9,29.97,SSW,194,0.0,0.0,79,0.00,,CLR,0.00,VWS V14.01,2013-07-07 04:43:00,
2013-07-06 23:47:00,68.5,62.1,29.97,SSW,194,0.0,1.0,80,0.00,,CLR,0.00,VWS V14.01,2013-07-07 04:47:00,
2013-07-06 23:48:00,68.5,62.1,29.97,SSW,194,0.0,1.0,80,0.00,,CLR,0.00,VWS V14.01,2013-07-07 04:48:00,
2013-07-06 23:52:00,68.3,61.9,29.97,SSW,194,0.0,1.0,80,0.00,,CLR,0.00,VWS V14.01,2013-07-07 04:52:00,
2013-07-06 23:53:00,68.3,62.2,29.97,SSW,194,0.0,1.0,81,0.00,,CLR,0.00,VWS V14.01,2013-07-07 04:53:00,
2013-07-06 23:57:00,68.3,62.2,29.97,South,190,0.0,1.0,81,0.00,,CLR,0.00,VWS V14.01,2013-07-07 04:57:00,
2013-07-06 23:58:00,68.5,62.5,29.97,South,169,0.0,1.0,81,0.00,,CLR,0.00,VWS V14.01,2013-07-07 04:58:00,